Wetterdaten: Donnerstag, 03.02.2022
Datum Zeit Temp. Aussen Temp. o. S. Temp +5cm Feuchte Auss Luftdruck Regen Sonnenschein Regendauer Solar Windben Empfang
03.02.2022 00:00 8,2 C 7,2 C 4,4 C 98 % 1021,9 hPa 0,0 l/m 0 min 0 min 0 W/m 9,7 km/h (2 Bft) 97,87 %
03.02.2022 00:02 8,2 C 7,2 C 4,4 C 98 % 1021,8 hPa 0,0 l/m 0 min 0 min 0 W/m 9,7 km/h (2 Bft) 100,00 %
03.02.2022 00:04 8,2 C 7,2 C 4,4 C 98 % 1021,8 hPa 0,0 l/m 0 min 0 min 0 W/m 6,4 km/h (2 Bft) 100,00 %
03.02.2022 00:08 8,2 C 7,2 C 5,0 C 98 % 1021,8 hPa 0,0 l/m 0 min 0 min 0 W/m 12,9 km/h (3 Bft) 100,00 %
03.02.2022 00:10 8,2 C 7,2 C 5,0 C 98 % 1021,7 hPa 0,0 l/m 0 min 0 min 0 W/m 9,7 km/h (2 Bft) 100,00 %
03.02.2022 00:12 8,2 C 7,2 C 5,0 C 98 % 1021,8 hPa 0,0 l/m 0 min 0 min 0 W/m 9,7 km/h (2 Bft) 100,00 %
03.02.2022 00:14 8,2 C 7,2 C 5,0 C 98 % 1021,8 hPa 0,0 l/m 0 min 0 min 0 W/m 9,7 km/h (2 Bft) 100,00 %
03.02.2022 00:16 8,2 C 7,2 C 5,0 C 98 % 1021,8 hPa 0,0 l/m 0 min 0 min 0 W/m 6,4 km/h (2 Bft) 95,74 %
03.02.2022 00:18 8,2 C 7,2 C 5,0 C 98 % 1021,8 hPa 0,0 l/m 0 min 0 min 0 W/m 6,4 km/h (2 Bft) 93,62 %
03.02.2022 00:20 8,2 C 7,8 C 5,0 C 98 % 1021,8 hPa 0,0 l/m 0 min 0 min 0 W/m 9,7 km/h (2 Bft) 97,87 %
03.02.2022 00:22 8,2 C 7,8 C 5,0 C 98 % 1021,8 hPa 0,0 l/m 0 min 0 min 0 W/m 6,4 km/h (2 Bft) 97,83 %
03.02.2022 00:24 8,2 C 7,2 C 5,0 C 98 % 1021,7 hPa 0,0 l/m 0 min 0 min 0 W/m 0,0 km/h (0 Bft) 95,74 %
03.02.2022 00:26 8,2 C 7,2 C 5,0 C 98 % 1021,7 hPa 0,0 l/m 0 min 0 min 0 W/m 3,2 km/h (1 Bft) 93,62 %
03.02.2022 00:28 8,2 C 7,2 C 5,0 C 98 % 1021,7 hPa 0,0 l/m 0 min 0 min 0 W/m 0,0 km/h (0 Bft) 93,62 %
03.02.2022 00:30 8,2 C 7,2 C 5,0 C 98 % 1021,7 hPa 0,0 l/m 0 min 0 min 0 W/m 0,0 km/h (0 Bft) 95,74 %
03.02.2022 00:32 8,2 C 7,2 C 5,0 C 98 % 1021,7 hPa 0,0 l/m 0 min 0 min 0 W/m 0,0 km/h (0 Bft) 95,74 %
03.02.2022 00:34 8,2 C 7,2 C 5,0 C 98 % 1021,7 hPa 0,0 l/m 0 min 0 min 0 W/m 0,0 km/h (0 Bft) 93,48 %
03.02.2022 00:36 8,2 C 7,8 C 5,0 C 98 % 1021,7 hPa 0,0 l/m 0 min 0 min 0 W/m 0,0 km/h (0 Bft) 93,62 %
03.02.2022 00:38 8,2 C 7,8 C 5,0 C 98 % 1021,6 hPa 0,0 l/m 0 min 0 min 0 W/m 0,0 km/h (0 Bft) 93,62 %
03.02.2022 00:40 8,2 C 7,8 C 5,0 C 98 % 1021,6 hPa 0,0 l/m 0 min 0 min 0 W/m 0,0 km/h (0 Bft) 93,62 %
03.02.2022 00:42 8,2 C 7,8 C 5,0 C 98 % 1021,7 hPa 0,0 l/m 0 min 0 min 0 W/m 0,0 km/h (0 Bft) 89,36 %
03.02.2022 00:44 8,2 C 7,8 C 5,0 C 98 % 1021,7 hPa 0,0 l/m 0 min 0 min 0 W/m 0,0 km/h (0 Bft) 95,65 %
03.02.2022 00:46 8,2 C 7,8 C 5,0 C 98 % 1021,7 hPa 0,0 l/m 0 min 0 min 0 W/m 0,0 km/h (0 Bft) 93,62 %
03.02.2022 00:48 8,2 C 7,8 C 5,0 C 98 % 1021,7 hPa 0,0 l/m 0 min 0 min 0 W/m 0,0 km/h (0 Bft) 93,62 %
03.02.2022 00:50 8,3 C 7,8 C 5,0 C 98 % 1021,7 hPa 0,0 l/m 0 min 0 min 0 W/m 0,0 km/h (0 Bft) 93,62 %
03.02.2022 00:52 8,2 C 7,8 C 5,0 C 98 % 1021,7 hPa 0,0 l/m 0 min 0 min 0 W/m 0,0 km/h (0 Bft) 93,62 %
03.02.2022 00:54 8,2 C 7,8 C 5,0 C 98 % 1021,7 hPa 0,0 l/m 0 min 0 min 0 W/m 0,0 km/h (0 Bft) 93,62 %
03.02.2022 00:56 8,2 C 7,8 C 5,0 C 98 % 1021,7 hPa 0,0 l/m 0 min 0 min 0 W/m 0,0 km/h (0 Bft) 93,48 %
03.02.2022 00:58 8,3 C 7,8 C 5,0 C 98 % 1021,7 hPa 0,0 l/m 0 min 0 min 0 W/m 0,0 km/h (0 Bft) 91,49 %
03.02.2022 01:00 8,3 C 7,8 C 5,0 C 98 % 1021,7 hPa 0,0 l/m 0 min 0 min 0 W/m 0,0 km/h (0 Bft) 93,62 %
03.02.2022 01:02 8,3 C 7,8 C 5,0 C 98 % 1021,7 hPa 0,0 l/m 0 min 0 min 0 W/m 0,0 km/h (0 Bft) 97,87 %
03.02.2022 01:04 8,3 C 7,8 C 5,0 C 98 % 1021,7 hPa 0,0 l/m 0 min 0 min 0 W/m 0,0 km/h (0 Bft) 95,74 %
03.02.2022 01:06 8,3 C 7,8 C 5,0 C 98 % 1021,7 hPa 0,0 l/m 0 min 0 min 0 W/m 0,0 km/h (0 Bft) 95,74 %
03.02.2022 01:08 8,3 C 7,8 C 5,0 C 98 % 1021,7 hPa 0,0 l/m 0 min 0 min 0 W/m 0,0 km/h (0 Bft) 95,65 %
03.02.2022 01:10 8,3 C 7,8 C 5,0 C 98 % 1021,6 hPa 0,0 l/m 0 min 0 min 0 W/m 0,0 km/h (0 Bft) 97,87 %
03.02.2022 01:12 8,3 C 7,8 C 5,0 C 98 % 1021,7 hPa 0,0 l/m 0 min 0 min 0 W/m 0,0 km/h (0 Bft) 95,74 %
03.02.2022 01:14 8,3 C 7,8 C 5,0 C 98 % 1021,7 hPa 0,0 l/m 0 min 0 min 0 W/m 0,0 km/h (0 Bft) 95,74 %
03.02.2022 01:16 8,3 C 7,8 C 5,0 C 98 % 1021,7 hPa 0,0 l/m 0 min 0 min 0 W/m 0,0 km/h (0 Bft) 97,87 %
03.02.2022 01:18 8,3 C 7,8 C 5,0 C 98 % 1021,6 hPa 0,0 l/m 0 min 0 min 0 W/m 0,0 km/h (0 Bft) 97,87 %
03.02.2022 01:20 8,3 C 7,8 C 5,0 C 98 % 1021,6 hPa 0,0 l/m 0 min 0 min 0 W/m 0,0 km/h (0 Bft) 100,00 %
03.02.2022 01:22 8,3 C 7,8 C 5,0 C 98 % 1021,6 hPa 0,0 l/m 0 min 0 min 0 W/m 0,0 km/h (0 Bft) 97,87 %
03.02.2022 01:24 8,3 C 7,8 C 5,0 C 98 % 1021,6 hPa 0,0 l/m 0 min 0 min 0 W/m 0,0 km/h (0 Bft) 100,00 %
03.02.2022 01:26 8,3 C 7,8 C 5,0 C 98 % 1021,6 hPa 0,0 l/m 0 min 0 min 0 W/m 0,0 km/h (0 Bft) 100,00 %
03.02.2022 01:28 8,3 C 7,8 C 5,0 C 98 % 1021,6 hPa 0,0 l/m 0 min 0 min 0 W/m 0,0 km/h (0 Bft) 100,00 %
03.02.2022 01:30 8,3 C 7,8 C 5,0 C 98 % 1021,7 hPa 0,0 l/m 0 min 0 min 0 W/m 12,9 km/h (3 Bft) 100,00 %
03.02.2022 01:32 8,3 C 7,8 C 5,0 C 98 % 1021,6 hPa 0,0 l/m 0 min 0 min 0 W/m 12,9 km/h (3 Bft) 100,00 %
03.02.2022 01:34 8,3 C 7,8 C 5,0 C 98 % 1021,6 hPa 0,0 l/m 0 min 0 min 0 W/m 6,4 km/h (2 Bft) 100,00 %
03.02.2022 01:36 8,3 C 7,8 C 5,0 C 98 % 1021,6 hPa 0,0 l/m 0 min 0 min 0 W/m 6,4 km/h (2 Bft) 100,00 %
03.02.2022 01:38 8,3 C 7,8 C 5,0 C 98 % 1021,5 hPa 0,0 l/m 0 min 0 min 0 W/m 6,4 km/h (2 Bft) 100,00 %
03.02.2022 01:40 8,3 C 7,8 C 5,0 C 98 % 1021,5 hPa 0,0 l/m 0 min 0 min 0 W/m 3,2 km/h (1 Bft) 100,00 %
03.02.2022 01:42 8,3 C 7,8 C 5,0 C 98 % 1021,5 hPa 0,0 l/m 0 min 0 min 0 W/m 3,2 km/h (1 Bft) 97,87 %
03.02.2022 01:44 8,3 C 7,8 C 5,0 C 98 % 1021,5 hPa 0,0 l/m 0 min 0 min 0 W/m 6,4 km/h (2 Bft) 100,00 %
03.02.2022 01:46 8,3 C 7,8 C 5,0 C 98 % 1021,5 hPa 0,0 l/m 0 min 0 min 0 W/m 3,2 km/h (1 Bft) 95,74 %
03.02.2022 01:48 8,3 C 7,8 C 5,0 C 98 % 1021,4 hPa 0,0 l/m 0 min 0 min 0 W/m 9,7 km/h (2 Bft) 100,00 %
03.02.2022 01:50 8,3 C 7,8 C 5,0 C 98 % 1021,4 hPa 0,0 l/m 0 min 0 min 0 W/m 16,1 km/h (3 Bft) 100,00 %
03.02.2022 01:52 8,3 C 7,8 C 5,0 C 98 % 1021,4 hPa 0,0 l/m 0 min 0 min 0 W/m 12,9 km/h (3 Bft) 100,00 %
03.02.2022 01:54 8,3 C 7,8 C 5,0 C 98 % 1021,3 hPa 0,0 l/m 0 min 0 min 0 W/m 6,4 km/h (2 Bft) 100,00 %
03.02.2022 01:56 8,3 C 7,8 C 5,0 C 98 % 1021,3 hPa 0,0 l/m 0 min 0 min 0 W/m 9,7 km/h (2 Bft) 100,00 %
03.02.2022 01:58 8,3 C 7,8 C 5,0 C 99 % 1021,3 hPa 0,0 l/m 0 min 0 min 0 W/m 12,9 km/h (3 Bft) 100,00 %
03.02.2022 02:00 8,3 C 7,8 C 5,0 C 99 % 1021,3 hPa 0,0 l/m 0 min 0 min 0 W/m 6,4 km/h (2 Bft) 100,00 %
03.02.2022 02:02 8,3 C 7,8 C 5,0 C 99 % 1021,3 hPa 0,0 l/m 0 min 0 min 0 W/m 6,4 km/h (2 Bft) 97,87 %
03.02.2022 02:04 8,3 C 7,8 C 5,0 C 99 % 1021,3 hPa 0,0 l/m 0 min 0 min 0 W/m 6,4 km/h (2 Bft) 100,00 %
03.02.2022 02:06 8,3 C 7,8 C 5,0 C 99 % 1021,3 hPa 0,0 l/m 0 min 0 min 0 W/m 12,9 km/h (3 Bft) 97,87 %
03.02.2022 02:08 8,3 C 7,8 C 5,0 C 99 % 1021,3 hPa 0,0 l/m 0 min 0 min 0 W/m 9,7 km/h (2 Bft) 97,83 %
03.02.2022 02:10 8,2 C 7,8 C 5,0 C 99 % 1021,2 hPa 0,0 l/m 0 min 0 min 0 W/m 6,4 km/h (2 Bft) 100,00 %
03.02.2022 02:12 8,2 C 7,8 C 5,0 C 99 % 1021,2 hPa 0,0 l/m 0 min 0 min 0 W/m 6,4 km/h (2 Bft) 100,00 %
03.02.2022 02:14 8,2 C 7,8 C 5,0 C 99 % 1021,2 hPa 0,0 l/m 0 min 0 min 0 W/m 12,9 km/h (3 Bft) 100,00 %
03.02.2022 02:16 8,2 C 7,8 C 5,0 C 99 % 1021,2 hPa 0,0 l/m 0 min 0 min 0 W/m 9,7 km/h (2 Bft) 97,87 %
03.02.2022 02:18 8,2 C 7,8 C 5,0 C 99 % 1021,2 hPa 0,0 l/m 0 min 0 min 0 W/m 16,1 km/h (3 Bft) 95,65 %
03.02.2022 02:20 8,2 C 7,8 C 5,0 C 99 % 1021,2 hPa 0,0 l/m 0 min 0 min 0 W/m 9,7 km/h (2 Bft) 100,00 %
03.02.2022 02:22 8,2 C 7,8 C 5,0 C 99 % 1021,2 hPa 0,0 l/m 0 min 0 min 0 W/m 16,1 km/h (3 Bft) 100,00 %
03.02.2022 02:24 8,2 C 7,8 C 5,0 C 99 % 1021,1 hPa 0,0 l/m 0 min 0 min 0 W/m 6,4 km/h (2 Bft) 97,87 %
03.02.2022 02:26 8,2 C 7,8 C 5,0 C 99 % 1021,1 hPa 0,0 l/m 0 min 0 min 0 W/m 9,7 km/h (2 Bft) 97,87 %
03.02.2022 02:28 8,2 C 7,8 C 5,0 C 99 % 1021,1 hPa 0,0 l/m 0 min 0 min 0 W/m 9,7 km/h (2 Bft) 97,87 %
03.02.2022 02:30 8,3 C 7,8 C 5,0 C 99 % 1021,1 hPa 0,0 l/m 0 min 0 min 0 W/m 12,9 km/h (3 Bft) 97,87 %
03.02.2022 02:32 8,2 C 7,8 C 5,0 C 99 % 1021,2 hPa 0,0 l/m 0 min 0 min 0 W/m 9,7 km/h (2 Bft) 97,83 %
03.02.2022 02:34 8,2 C 7,8 C 5,0 C 99 % 1021,1 hPa 0,0 l/m 0 min 0 min 0 W/m 12,9 km/h (3 Bft) 95,74 %
03.02.2022 02:36 8,2 C 7,8 C 5,0 C 99 % 1021,1 hPa 0,0 l/m 0 min 0 min 0 W/m 6,4 km/h (2 Bft) 97,87 %
03.02.2022 02:38 8,2 C 7,8 C 5,0 C 99 % 1021,1 hPa 0,0 l/m 0 min 0 min 0 W/m 6,4 km/h (2 Bft) 97,87 %
03.02.2022 02:40 8,2 C 7,8 C 5,0 C 99 % 1021,1 hPa 0,0 l/m 0 min 0 min 0 W/m 12,9 km/h (3 Bft) 97,87 %
03.02.2022 02:42 8,2 C 7,8 C 5,0 C 99 % 1021,1 hPa 0,0 l/m 0 min 0 min 0 W/m 9,7 km/h (2 Bft) 97,83 %
03.02.2022 02:44 8,3 C 7,8 C 5,0 C 99 % 1021,1 hPa 0,0 l/m 0 min 0 min 0 W/m 9,7 km/h (2 Bft) 95,74 %
03.02.2022 02:46 8,2 C 7,8 C 5,0 C 99 % 1021,1 hPa 0,0 l/m 0 min 0 min 0 W/m 12,9 km/h (3 Bft) 97,87 %
03.02.2022 02:48 8,3 C 7,8 C 5,0 C 99 % 1021,1 hPa 0,0 l/m 0 min 0 min 0 W/m 12,9 km/h (3 Bft) 97,87 %
03.02.2022 02:50 8,3 C 7,8 C 5,0 C 99 % 1021,1 hPa 0,0 l/m 0 min 0 min 0 W/m 9,7 km/h (2 Bft) 95,74 %
03.02.2022 02:52 8,3 C 7,8 C 5,0 C 99 % 1021,1 hPa 0,0 l/m 0 min 0 min 0 W/m 16,1 km/h (3 Bft) 97,87 %
03.02.2022 02:54 8,3 C 7,8 C 5,0 C 99 % 1021,1 hPa 0,0 l/m 0 min 0 min 0 W/m 12,9 km/h (3 Bft) 97,83 %
03.02.2022 02:56 8,3 C 7,8 C 5,0 C 99 % 1021,1 hPa 0,0 l/m 0 min 0 min 0 W/m 12,9 km/h (3 Bft) 97,87 %
03.02.2022 02:58 8,3 C 7,8 C 5,0 C 99 % 1021,0 hPa 0,0 l/m 0 min 0 min 0 W/m 12,9 km/h (3 Bft) 100,00 %
03.02.2022 03:00 8,3 C 7,8 C 5,0 C 99 % 1021,0 hPa 0,0 l/m 0 min 0 min 0 W/m 19,3 km/h (3 Bft) 100,00 %
03.02.2022 03:02 8,3 C 7,8 C 5,0 C 99 % 1021,0 hPa 0,0 l/m 0 min 0 min 0 W/m 16,1 km/h (3 Bft) 97,87 %
03.02.2022 03:04 8,3 C 7,8 C 5,0 C 99 % 1021,1 hPa 0,0 l/m 0 min 0 min 0 W/m 19,3 km/h (3 Bft) 97,87 %
03.02.2022 03:06 8,3 C 7,8 C 5,0 C 99 % 1021,0 hPa 0,0 l/m 0 min 0 min 0 W/m 12,9 km/h (3 Bft) 97,83 %
03.02.2022 03:08 8,3 C 7,8 C 5,0 C 99 % 1021,0 hPa 0,0 l/m 0 min 0 min 0 W/m 9,7 km/h (2 Bft) 100,00 %
03.02.2022 03:10 8,3 C 7,8 C 5,0 C 99 % 1021,0 hPa 0,0 l/m 0 min 0 min 0 W/m 9,7 km/h (2 Bft) 100,00 %
03.02.2022 03:12 8,3 C 7,8 C 5,0 C 99 % 1020,9 hPa 0,0 l/m 0 min 0 min 0 W/m 9,7 km/h (2 Bft) 97,87 %
03.02.2022 03:14 8,3 C 7,8 C 5,0 C 99 % 1021,0 hPa 0,0 l/m 0 min 0 min 0 W/m 6,4 km/h (2 Bft) 93,62 %
03.02.2022 03:16 8,3 C 7,8 C 5,0 C 99 % 1021,0 hPa 0,0 l/m 0 min 0 min 0 W/m 12,9 km/h (3 Bft) 91,49 %
03.02.2022 03:18 8,3 C 7,8 C 5,0 C 99 % 1020,9 hPa 0,0 l/m 0 min 0 min 0 W/m 9,7 km/h (2 Bft) 97,83 %
03.02.2022 03:20 8,3 C 7,8 C 5,6 C 99 % 1020,9 hPa 0,0 l/m 0 min 0 min 0 W/m 12,9 km/h (3 Bft) 91,49 %
03.02.2022 03:22 8,3 C 7,8 C 5,6 C 99 % 1020,9 hPa 0,0 l/m 0 min 0 min 0 W/m 16,1 km/h (3 Bft) 93,62 %
03.02.2022 03:24 8,3 C 7,8 C 5,6 C 99 % 1020,9 hPa 0,0 l/m 0 min 0 min 0 W/m 6,4 km/h (2 Bft) 95,74 %
03.02.2022 03:26 8,3 C 7,8 C 5,0 C 99 % 1020,8 hPa 0,0 l/m 0 min 0 min 0 W/m 12,9 km/h (3 Bft) 97,87 %
03.02.2022 03:28 8,3 C 7,8 C 5,6 C 99 % 1020,8 hPa 0,0 l/m 0 min 0 min 0 W/m 12,9 km/h (3 Bft) 93,62 %
03.02.2022 03:30 8,3 C 7,8 C 5,0 C 99 % 1020,8 hPa 0,0 l/m 0 min 0 min 0 W/m 6,4 km/h (2 Bft) 95,65 %
03.02.2022 03:32 8,3 C 7,8 C 5,6 C 99 % 1020,8 hPa 0,0 l/m 0 min 0 min 0 W/m 12,9 km/h (3 Bft) 96,23 %
03.02.2022 03:34 8,3 C 7,8 C 5,0 C 99 % 1020,7 hPa 0,0 l/m 0 min 0 min 0 W/m 9,7 km/h (2 Bft) 93,62 %
03.02.2022 03:36 8,3 C 7,8 C 5,0 C 99 % 1020,7 hPa 0,0 l/m 0 min 0 min 0 W/m 3,2 km/h (1 Bft) 95,74 %
03.02.2022 03:38 8,3 C 7,8 C 5,0 C 99 % 1020,8 hPa 0,0 l/m 0 min 0 min 0 W/m 6,4 km/h (2 Bft) 95,74 %
03.02.2022 03:40 8,2 C 7,8 C 5,0 C 99 % 1020,7 hPa 0,0 l/m 0 min 0 min 0 W/m 16,1 km/h (3 Bft) 93,48 %
03.02.2022 03:42 8,2 C 7,8 C 5,6 C 99 % 1020,7 hPa 0,0 l/m 0 min 0 min 0 W/m 9,7 km/h (2 Bft) 95,74 %
03.02.2022 03:44 8,2 C 7,8 C 5,6 C 99 % 1020,7 hPa 0,0 l/m 0 min 0 min 0 W/m 12,9 km/h (3 Bft) 93,62 %
03.02.2022 03:46 8,2 C 7,8 C 5,6 C 99 % 1020,6 hPa 0,0 l/m 0 min 0 min 0 W/m 12,9 km/h (3 Bft) 93,62 %
03.02.2022 03:48 8,2 C 7,8 C 5,6 C 99 % 1020,7 hPa 0,0 l/m 0 min 0 min 0 W/m 12,9 km/h (3 Bft) 93,62 %
03.02.2022 03:50 8,2 C 7,8 C 5,6 C 99 % 1020,7 hPa 0,0 l/m 0 min 0 min 0 W/m 9,7 km/h (2 Bft) 95,74 %
03.02.2022 03:52 8,2 C 7,8 C 5,6 C 99 % 1020,6 hPa 0,0 l/m 0 min 0 min 0 W/m 12,9 km/h (3 Bft) 93,48 %
03.02.2022 03:54 8,2 C 7,8 C 5,6 C 99 % 1020,6 hPa 0,0 l/m 0 min 0 min 0 W/m 9,7 km/h (2 Bft) 95,74 %
03.02.2022 03:56 8,2 C 7,8 C 5,6 C 99 % 1020,6 hPa 0,0 l/m 0 min 0 min 0 W/m 6,4 km/h (2 Bft) 97,87 %
03.02.2022 03:58 8,2 C 7,8 C 5,6 C 99 % 1020,6 hPa 0,0 l/m 0 min 0 min 0 W/m 12,9 km/h (3 Bft) 97,87 %
03.02.2022 04:00 8,2 C 7,8 C 5,6 C 99 % 1020,6 hPa 0,0 l/m 0 min 0 min 0 W/m 12,9 km/h (3 Bft) 95,74 %
03.02.2022 04:02 8,2 C 7,8 C 5,6 C 99 % 1020,6 hPa 0,0 l/m 0 min 0 min 0 W/m 16,1 km/h (3 Bft) 100,00 %
03.02.2022 04:04 8,2 C 7,8 C 5,6 C 99 % 1020,6 hPa 0,0 l/m 0 min 0 min 0 W/m 16,1 km/h (3 Bft) 97,56 %
03.02.2022 04:06 8,2 C 7,8 C 5,6 C 99 % 1020,6 hPa 0,0 l/m 0 min 0 min 0 W/m 16,1 km/h (3 Bft) 100,00 %
03.02.2022 04:08 8,2 C 7,8 C 5,6 C 99 % 1020,5 hPa 0,0 l/m 0 min 0 min 0 W/m 12,9 km/h (3 Bft) 100,00 %
03.02.2022 04:10 8,2 C 7,8 C 5,6 C 99 % 1020,5 hPa 0,0 l/m 0 min 0 min 0 W/m 19,3 km/h (3 Bft) 97,87 %
03.02.2022 04:12 8,2 C 7,8 C 5,6 C 98 % 1020,5 hPa 0,0 l/m 0 min 0 min 0 W/m 9,7 km/h (2 Bft) 100,00 %
03.02.2022 04:14 8,2 C 7,8 C 5,6 C 98 % 1020,5 hPa 0,0 l/m 0 min 0 min 0 W/m 12,9 km/h (3 Bft) 100,00 %
03.02.2022 04:16 8,2 C 7,8 C 5,6 C 98 % 1020,5 hPa 0,0 l/m 0 min 0 min 0 W/m 16,1 km/h (3 Bft) 98,08 %
03.02.2022 04:18 8,2 C 7,8 C 5,6 C 98 % 1020,5 hPa 0,0 l/m 0 min 0 min 0 W/m 25,7 km/h (4 Bft) 97,87 %
03.02.2022 04:20 8,2 C 7,8 C 5,6 C 99 % 1020,5 hPa 0,0 l/m 0 min 0 min 0 W/m 16,1 km/h (3 Bft) 95,74 %
03.02.2022 04:22 8,2 C 7,8 C 5,6 C 99 % 1020,4 hPa 0,0 l/m 0 min 0 min 0 W/m 6,4 km/h (2 Bft) 97,87 %
03.02.2022 04:24 8,2 C 7,8 C 5,6 C 98 % 1020,4 hPa 0,0 l/m 0 min 0 min 0 W/m 12,9 km/h (3 Bft) 93,62 %
03.02.2022 04:26 8,1 C 7,8 C 5,6 C 98 % 1020,4 hPa 0,0 l/m 0 min 0 min 0 W/m 22,5 km/h (4 Bft) 97,83 %
03.02.2022 04:28 8,1 C 7,8 C 5,6 C 98 % 1020,5 hPa 0,0 l/m 0 min 0 min 0 W/m 22,5 km/h (4 Bft) 97,87 %
03.02.2022 04:30 8,1 C 7,8 C 5,6 C 98 % 1020,4 hPa 0,0 l/m 0 min 0 min 0 W/m 12,9 km/h (3 Bft) 97,87 %
03.02.2022 04:32 8,1 C 7,8 C 5,6 C 98 % 1020,4 hPa 0,0 l/m 0 min 0 min 0 W/m 6,4 km/h (2 Bft) 97,92 %
03.02.2022 04:34 8,1 C 7,2 C 5,6 C 98 % 1020,4 hPa 0,0 l/m 0 min 0 min 0 W/m 12,9 km/h (3 Bft) 95,74 %
03.02.2022 04:36 8,1 C 7,2 C 5,6 C 98 % 1020,3 hPa 0,0 l/m 0 min 0 min 0 W/m 12,9 km/h (3 Bft) 97,87 %
03.02.2022 04:38 8,1 C 7,2 C 5,6 C 98 % 1020,4 hPa 0,0 l/m 0 min 0 min 0 W/m 12,9 km/h (3 Bft) 97,83 %
03.02.2022 04:40 8,1 C 7,2 C 5,0 C 98 % 1020,2 hPa 0,0 l/m 0 min 0 min 0 W/m 6,4 km/h (2 Bft) 97,87 %
03.02.2022 04:42 8,1 C 7,2 C 5,0 C 98 % 1020,1 hPa 0,0 l/m 0 min 0 min 0 W/m 6,4 km/h (2 Bft) 95,74 %
03.02.2022 04:44 8,1 C 7,2 C 5,0 C 98 % 1020,1 hPa 0,0 l/m 0 min 0 min 0 W/m 9,7 km/h (2 Bft) 95,74 %
03.02.2022 04:46 8,1 C 7,2 C 5,0 C 98 % 1020,1 hPa 0,0 l/m 0 min 0 min 0 W/m 6,4 km/h (2 Bft) 97,87 %
03.02.2022 04:48 8,1 C 7,2 C 5,0 C 98 % 1020,1 hPa 0,0 l/m 0 min 0 min 0 W/m 9,7 km/h (2 Bft) 100,00 %
03.02.2022 04:50 8,0 C 7,2 C 5,0 C 98 % 1020,0 hPa 0,0 l/m 0 min 0 min 0 W/m 3,2 km/h (1 Bft) 100,00 %
03.02.2022 04:52 8,0 C 7,2 C 5,0 C 98 % 1020,0 hPa 0,0 l/m 0 min 0 min 0 W/m 9,7 km/h (2 Bft) 97,87 %
03.02.2022 04:54 8,0 C 7,2 C 5,0 C 98 % 1020,0 hPa 0,0 l/m 0 min 0 min 0 W/m 6,4 km/h (2 Bft) 100,00 %
03.02.2022 04:56 8,0 C 7,2 C 5,0 C 98 % 1020,0 hPa 0,0 l/m 0 min 0 min 0 W/m 6,4 km/h (2 Bft) 100,00 %
03.02.2022 04:58 8,0 C 7,2 C 5,0 C 98 % 1019,9 hPa 0,0 l/m 0 min 0 min 0 W/m 6,4 km/h (2 Bft) 100,00 %
03.02.2022 05:00 8,0 C 7,2 C 5,0 C 98 % 1019,9 hPa 0,0 l/m 0 min 0 min 0 W/m 3,2 km/h (1 Bft) 95,74 %
03.02.2022 05:02 7,9 C 7,2 C 5,0 C 98 % 1019,9 hPa 0,0 l/m 0 min 0 min 0 W/m 6,4 km/h (2 Bft) 45,45 %
03.02.2022 05:04 7,9 C 7,2 C 5,0 C 98 % 1019,8 hPa 0,0 l/m 0 min 0 min 0 W/m 12,9 km/h (3 Bft) 100,00 %
03.02.2022 05:06 7,9 C 7,2 C 5,0 C 98 % 1019,8 hPa 0,0 l/m 0 min 0 min 0 W/m 6,4 km/h (2 Bft) 100,00 %
03.02.2022 05:08 7,9 C 7,2 C 5,0 C 98 % 1019,8 hPa 0,0 l/m 0 min 0 min 0 W/m 6,4 km/h (2 Bft) 100,00 %
03.02.2022 05:10 7,9 C 7,2 C 5,0 C 98 % 1019,7 hPa 0,0 l/m 0 min 0 min 0 W/m 12,9 km/h (3 Bft) 100,00 %
03.02.2022 05:12 7,9 C 7,2 C 5,0 C 98 % 1019,7 hPa 0,0 l/m 0 min 0 min 0 W/m 12,9 km/h (3 Bft) 100,00 %
03.02.2022 05:14 7,8 C 7,2 C 5,0 C 98 % 1019,6 hPa 0,0 l/m 0 min 0 min 0 W/m 12,9 km/h (3 Bft) 97,83 %
03.02.2022 05:16 7,8 C 7,2 C 5,0 C 98 % 1019,6 hPa 0,0 l/m 0 min 0 min 0 W/m 6,4 km/h (2 Bft) 100,00 %
03.02.2022 05:18 7,8 C 7,2 C 5,0 C 98 % 1019,7 hPa 0,0 l/m 0 min 0 min 0 W/m 12,9 km/h (3 Bft) 100,00 %
03.02.2022 05:20 7,8 C 7,2 C 5,0 C 98 % 1019,7 hPa 0,0 l/m 0 min 0 min 0 W/m 12,9 km/h (3 Bft) 100,00 %
03.02.2022 05:22 7,8 C 7,2 C 5,0 C 98 % 1019,7 hPa 0,0 l/m 0 min 0 min 0 W/m 16,1 km/h (3 Bft) 100,00 %
03.02.2022 05:24 7,8 C 7,2 C 5,0 C 98 % 1019,7 hPa 0,0 l/m 0 min 0 min 0 W/m 12,9 km/h (3 Bft) 97,87 %
03.02.2022 05:26 7,8 C 7,2 C 5,0 C 98 % 1019,6 hPa 0,0 l/m 0 min 0 min 0 W/m 12,9 km/h (3 Bft) 100,00 %
03.02.2022 05:28 7,8 C 7,2 C 5,0 C 98 % 1019,6 hPa 0,0 l/m 0 min 0 min 0 W/m 12,9 km/h (3 Bft) 100,00 %
03.02.2022 05:30 7,7 C 7,2 C 5,0 C 98 % 1019,6 hPa 0,0 l/m 0 min 0 min 0 W/m 9,7 km/h (2 Bft) 95,74 %
03.02.2022 05:32 7,7 C 7,2 C 5,0 C 98 % 1019,6 hPa 0,0 l/m 0 min 0 min 0 W/m 12,9 km/h (3 Bft) 100,00 %
03.02.2022 05:34 7,7 C 7,2 C 5,0 C 98 % 1019,6 hPa 0,0 l/m 0 min 0 min 0 W/m 9,7 km/h (2 Bft) 100,00 %
03.02.2022 05:36 7,7 C 7,2 C 5,0 C 98 % 1019,5 hPa 0,0 l/m 0 min 0 min 0 W/m 12,9 km/h (3 Bft) 100,00 %
03.02.2022 05:38 7,7 C 7,2 C 5,0 C 98 % 1019,6 hPa 0,0 l/m 0 min 0 min 0 W/m 16,1 km/h (3 Bft) 100,00 %
03.02.2022 05:40 7,7 C 7,2 C 5,0 C 98 % 1019,5 hPa 0,0 l/m 0 min 0 min 0 W/m 9,7 km/h (2 Bft) 97,87 %
03.02.2022 05:42 7,7 C 7,2 C 5,0 C 97 % 1019,5 hPa 0,0 l/m 0 min 0 min 0 W/m 6,4 km/h (2 Bft) 100,00 %
03.02.2022 05:44 7,7 C 7,2 C 5,0 C 97 % 1019,5 hPa 0,0 l/m 0 min 0 min 0 W/m 9,7 km/h (2 Bft) 97,87 %
03.02.2022 05:46 7,7 C 7,2 C 5,0 C 97 % 1019,5 hPa 0,0 l/m 0 min 0 min 0 W/m 9,7 km/h (2 Bft) 95,74 %
03.02.2022 05:48 7,7 C 7,2 C 5,0 C 97 % 1019,4 hPa 0,0 l/m 0 min 0 min 0 W/m 12,9 km/h (3 Bft) 97,87 %
03.02.2022 05:50 7,7 C 7,2 C 5,0 C 97 % 1019,4 hPa 0,0 l/m 0 min 0 min 0 W/m 6,4 km/h (2 Bft) 97,83 %
03.02.2022 05:52 7,7 C 7,2 C 5,0 C 97 % 1019,4 hPa 0,0 l/m 0 min 0 min 0 W/m 12,9 km/h (3 Bft) 97,87 %
03.02.2022 05:54 7,7 C 7,2 C 5,0 C 97 % 1019,5 hPa 0,0 l/m 0 min 0 min 0 W/m 19,3 km/h (3 Bft) 95,74 %
03.02.2022 05:56 7,7 C 7,2 C 5,0 C 97 % 1019,4 hPa 0,0 l/m 0 min 0 min 0 W/m 9,7 km/h (2 Bft) 97,87 %
03.02.2022 05:58 7,7 C 7,2 C 5,0 C 97 % 1019,3 hPa 0,0 l/m 0 min 0 min 0 W/m 12,9 km/h (3 Bft) 97,87 %
03.02.2022 06:00 7,7 C 7,2 C 5,0 C 97 % 1019,3 hPa 0,0 l/m 0 min 0 min 0 W/m 12,9 km/h (3 Bft) 97,87 %
03.02.2022 06:02 7,7 C 7,2 C 5,0 C 97 % 1019,3 hPa 0,0 l/m 0 min 0 min 0 W/m 16,1 km/h (3 Bft) 97,83 %
03.02.2022 06:04 7,7 C 7,2 C 5,0 C 97 % 1019,3 hPa 0,0 l/m 0 min 0 min 0 W/m 3,2 km/h (1 Bft) 95,74 %
03.02.2022 06:08 7,7 C 7,2 C 5,0 C 97 % 1019,3 hPa 0,0 l/m 0 min 0 min 0 W/m 9,7 km/h (2 Bft) 97,87 %
03.02.2022 06:10 7,7 C 7,2 C 5,0 C 97 % 1019,3 hPa 0,0 l/m 0 min 0 min 0 W/m 16,1 km/h (3 Bft) 93,62 %
03.02.2022 06:12 7,7 C 7,2 C 5,0 C 97 % 1019,3 hPa 0,0 l/m 0 min 0 min 0 W/m 12,9 km/h (3 Bft) 93,62 %
03.02.2022 06:14 7,7 C 7,2 C 5,0 C 97 % 1019,3 hPa 0,0 l/m 0 min 0 min 0 W/m 12,9 km/h (3 Bft) 93,48 %
03.02.2022 06:16 7,7 C 7,2 C 5,0 C 97 % 1019,3 hPa 0,0 l/m 0 min 0 min 0 W/m 6,4 km/h (2 Bft) 93,62 %
03.02.2022 06:18 7,7 C 7,2 C 5,0 C 97 % 1019,2 hPa 0,0 l/m 0 min 0 min 0 W/m 6,4 km/h (2 Bft) 93,62 %
03.02.2022 06:20 7,6 C 7,2 C 5,0 C 97 % 1019,2 hPa 0,0 l/m 0 min 0 min 0 W/m 6,4 km/h (2 Bft) 93,62 %
03.02.2022 06:22 7,6 C 7,2 C 5,0 C 97 % 1019,2 hPa 0,0 l/m 0 min 0 min 0 W/m 9,7 km/h (2 Bft) 91,49 %
03.02.2022 06:24 7,6 C 7,2 C 5,0 C 97 % 1019,2 hPa 0,0 l/m 0 min 0 min 0 W/m 6,4 km/h (2 Bft) 93,62 %
03.02.2022 06:26 7,6 C 7,2 C 5,0 C 97 % 1019,2 hPa 0,0 l/m 0 min 0 min 0 W/m 16,1 km/h (3 Bft) 91,30 %
03.02.2022 06:28 7,6 C 7,2 C 5,0 C 97 % 1019,2 hPa 0,0 l/m 0 min 0 min 0 W/m 12,9 km/h (3 Bft) 93,62 %
03.02.2022 06:30 7,6 C 7,2 C 5,0 C 97 % 1019,2 hPa 0,0 l/m 0 min 0 min 0 W/m 12,9 km/h (3 Bft) 95,74 %
03.02.2022 06:32 7,6 C 7,2 C 5,0 C 96 % 1019,2 hPa 0,0 l/m 0 min 0 min 0 W/m 6,4 km/h (2 Bft) 95,74 %
03.02.2022 06:34 7,6 C 7,2 C 5,0 C 96 % 1019,3 hPa 0,0 l/m 0 min 0 min 0 W/m 6,4 km/h (2 Bft) 95,74 %
03.02.2022 06:36 7,6 C 7,2 C 5,0 C 96 % 1019,2 hPa 0,0 l/m 0 min 0 min 0 W/m 12,9 km/h (3 Bft) 93,62 %
03.02.2022 06:38 7,6 C 7,2 C 5,0 C 96 % 1019,3 hPa 0,0 l/m 0 min 0 min 0 W/m 12,9 km/h (3 Bft) 97,83 %
03.02.2022 06:40 7,6 C 7,2 C 5,0 C 96 % 1019,2 hPa 0,0 l/m 0 min 0 min 0 W/m 6,4 km/h (2 Bft) 95,74 %
03.02.2022 06:42 7,6 C 7,2 C 5,0 C 96 % 1019,1 hPa 0,0 l/m 0 min 0 min 0 W/m 6,4 km/h (2 Bft) 95,74 %
03.02.2022 06:44 7,6 C 7,2 C 5,0 C 96 % 1019,1 hPa 0,0 l/m 0 min 0 min 0 W/m 16,1 km/h (3 Bft) 93,62 %
03.02.2022 06:46 7,6 C 7,2 C 5,0 C 96 % 1019,1 hPa 0,0 l/m 0 min 0 min 0 W/m 9,7 km/h (2 Bft) 97,87 %
03.02.2022 06:48 7,6 C 6,7 C 5,0 C 96 % 1019,1 hPa 0,0 l/m 0 min 0 min 0 W/m 9,7 km/h (2 Bft) 97,87 %
03.02.2022 06:50 7,6 C 6,7 C 5,0 C 96 % 1019,1 hPa 0,0 l/m 0 min 0 min 0 W/m 12,9 km/h (3 Bft) 97,83 %
03.02.2022 06:52 7,6 C 6,7 C 5,0 C 96 % 1019,0 hPa 0,0 l/m 0 min 0 min 0 W/m 12,9 km/h (3 Bft) 97,87 %
03.02.2022 06:54 7,6 C 6,7 C 5,0 C 96 % 1019,0 hPa 0,0 l/m 0 min 0 min 0 W/m 12,9 km/h (3 Bft) 97,87 %
03.02.2022 06:56 7,6 C 6,7 C 4,4 C 96 % 1018,9 hPa 0,0 l/m 0 min 0 min 0 W/m 6,4 km/h (2 Bft) 97,87 %
03.02.2022 06:58 7,6 C 6,7 C 4,4 C 96 % 1018,9 hPa 0,0 l/m 0 min 0 min 0 W/m 12,9 km/h (3 Bft) 97,87 %
03.02.2022 07:00 7,6 C 6,7 C 4,4 C 96 % 1018,9 hPa 0,0 l/m 0 min 0 min 0 W/m 9,7 km/h (2 Bft) 97,87 %
03.02.2022 07:02 7,5 C 6,7 C 4,4 C 96 % 1018,9 hPa 0,0 l/m 0 min 0 min 0 W/m 6,4 km/h (2 Bft) 97,83 %
03.02.2022 07:04 7,5 C 6,7 C 4,4 C 96 % 1019,0 hPa 0,0 l/m 0 min 0 min 0 W/m 6,4 km/h (2 Bft) 100,00 %
03.02.2022 07:06 7,5 C 6,7 C 4,4 C 96 % 1019,0 hPa 0,0 l/m 0 min 0 min 0 W/m 6,4 km/h (2 Bft) 100,00 %
03.02.2022 07:08 7,5 C 6,7 C 4,4 C 96 % 1018,9 hPa 0,0 l/m 0 min 0 min 0 W/m 3,2 km/h (1 Bft) 100,00 %
03.02.2022 07:10 7,5 C 6,7 C 4,4 C 96 % 1019,0 hPa 0,0 l/m 0 min 0 min 0 W/m 6,4 km/h (2 Bft) 100,00 %
03.02.2022 07:12 7,5 C 6,7 C 4,4 C 96 % 1019,0 hPa 0,0 l/m 0 min 0 min 0 W/m 6,4 km/h (2 Bft) 95,65 %
03.02.2022 07:14 7,5 C 6,7 C 4,4 C 96 % 1018,9 hPa 0,0 l/m 0 min 0 min 0 W/m 6,4 km/h (2 Bft) 100,00 %
03.02.2022 07:16 7,5 C 6,7 C 4,4 C 96 % 1018,9 hPa 0,0 l/m 0 min 0 min 0 W/m 6,4 km/h (2 Bft) 100,00 %
03.02.2022 07:18 7,5 C 6,7 C 4,4 C 96 % 1018,9 hPa 0,0 l/m 0 min 0 min 0 W/m 3,2 km/h (1 Bft) 95,74 %
03.02.2022 07:20 7,5 C 6,7 C 4,4 C 96 % 1018,8 hPa 0,0 l/m 0 min 0 min 0 W/m 6,4 km/h (2 Bft) 100,00 %
03.02.2022 07:22 7,5 C 6,7 C 4,4 C 96 % 1018,9 hPa 0,0 l/m 0 min 0 min 0 W/m 3,2 km/h (1 Bft) 100,00 %
03.02.2022 07:24 7,5 C 6,7 C 4,4 C 96 % 1018,8 hPa 0,0 l/m 0 min 0 min 0 W/m 3,2 km/h (1 Bft) 100,00 %
03.02.2022 07:26 7,4 C 6,7 C 4,4 C 96 % 1018,8 hPa 0,0 l/m 0 min 0 min 0 W/m 3,2 km/h (1 Bft) 95,74 %
03.02.2022 07:28 7,4 C 6,7 C 4,4 C 96 % 1018,8 hPa 0,0 l/m 0 min 0 min 0 W/m 3,2 km/h (1 Bft) 100,00 %
03.02.2022 07:30 7,4 C 6,7 C 4,4 C 96 % 1018,8 hPa 0,0 l/m 0 min 0 min 0 W/m 6,4 km/h (2 Bft) 100,00 %
03.02.2022 07:32 7,4 C 6,7 C 4,4 C 96 % 1018,9 hPa 0,0 l/m 0 min 0 min 0 W/m 3,2 km/h (1 Bft) 100,00 %
03.02.2022 07:34 7,4 C 6,7 C 4,4 C 96 % 1018,8 hPa 0,0 l/m 0 min 0 min 0 W/m 6,4 km/h (2 Bft) 100,00 %
03.02.2022 07:36 7,4 C 6,7 C 4,4 C 96 % 1018,8 hPa 0,0 l/m 0 min 0 min 0 W/m 6,4 km/h (2 Bft) 100,00 %
03.02.2022 07:38 7,4 C 6,7 C 4,4 C 96 % 1018,7 hPa 0,0 l/m 0 min 0 min 0 W/m 6,4 km/h (2 Bft) 100,00 %
03.02.2022 07:40 7,4 C 6,7 C 4,4 C 97 % 1018,7 hPa 0,0 l/m 0 min 0 min 0 W/m 3,2 km/h (1 Bft) 100,00 %
03.02.2022 07:42 7,4 C 6,7 C 4,4 C 97 % 1018,6 hPa 0,0 l/m 0 min 0 min 0 W/m 3,2 km/h (1 Bft) 97,87 %
03.02.2022 07:44 7,4 C 6,7 C 4,4 C 97 % 1018,6 hPa 0,0 l/m 0 min 0 min 0 W/m 6,4 km/h (2 Bft) 100,00 %
03.02.2022 07:46 7,4 C 6,7 C 4,4 C 97 % 1018,7 hPa 0,0 l/m 0 min 0 min 0 W/m 6,4 km/h (2 Bft) 100,00 %
03.02.2022 07:48 7,4 C 6,7 C 4,4 C 97 % 1018,7 hPa 0,0 l/m 0 min 0 min 0 W/m 6,4 km/h (2 Bft) 100,00 %
03.02.2022 07:50 7,4 C 6,7 C 4,4 C 97 % 1018,6 hPa 0,0 l/m 0 min 0 min 0 W/m 9,7 km/h (2 Bft) 97,87 %
03.02.2022 07:52 7,4 C 6,7 C 4,4 C 97 % 1018,6 hPa 0,0 l/m 0 min 0 min 0 W/m 6,4 km/h (2 Bft) 100,00 %
03.02.2022 07:54 7,4 C 6,7 C 4,4 C 97 % 1018,6 hPa 0,0 l/m 0 min 0 min 0 W/m 3,2 km/h (1 Bft) 100,00 %
03.02.2022 07:56 7,4 C 6,7 C 4,4 C 97 % 1018,6 hPa 0,0 l/m 0 min 0 min 0 W/m 3,2 km/h (1 Bft) 97,87 %
03.02.2022 07:58 7,3 C 6,7 C 4,4 C 97 % 1018,6 hPa 0,0 l/m 0 min 0 min 0 W/m 12,9 km/h (3 Bft) 100,00 %
03.02.2022 08:00 7,3 C 6,7 C 4,4 C 97 % 1018,6 hPa 0,0 l/m 0 min 0 min 0 W/m 6,4 km/h (2 Bft) 100,00 %
03.02.2022 08:02 7,3 C 6,7 C 4,4 C 97 % 1018,5 hPa 0,0 l/m 0 min 2 min 0 W/m 6,4 km/h (2 Bft) 100,00 %
03.02.2022 08:04 7,3 C 6,7 C 4,4 C 97 % 1018,5 hPa 0,0 l/m 0 min 0 min 0 W/m 6,4 km/h (2 Bft) 100,00 %
03.02.2022 08:06 7,3 C 6,7 C 4,4 C 97 % 1018,4 hPa 0,0 l/m 0 min 0 min 0 W/m 6,4 km/h (2 Bft) 97,87 %
03.02.2022 08:08 7,3 C 6,7 C 4,4 C 97 % 1018,4 hPa 0,0 l/m 0 min 0 min 0 W/m 9,7 km/h (2 Bft) 97,92 %
03.02.2022 08:10 7,3 C 6,7 C 4,4 C 97 % 1018,4 hPa 0,0 l/m 0 min 0 min 0 W/m 12,9 km/h (3 Bft) 100,00 %
03.02.2022 08:12 7,3 C 6,7 C 4,4 C 97 % 1018,4 hPa 0,0 l/m 0 min 0 min 0 W/m 12,9 km/h (3 Bft) 97,83 %
03.02.2022 08:14 7,3 C 6,7 C 4,4 C 97 % 1018,4 hPa 0,0 l/m 0 min 0 min 0 W/m 12,9 km/h (3 Bft) 97,87 %
03.02.2022 08:16 7,3 C 6,7 C 4,4 C 97 % 1018,4 hPa 0,0 l/m 0 min 0 min 0 W/m 9,7 km/h (2 Bft) 95,74 %
03.02.2022 08:18 7,3 C 6,7 C 4,4 C 97 % 1018,4 hPa 0,0 l/m 0 min 0 min 0 W/m 9,7 km/h (2 Bft) 97,87 %
03.02.2022 08:20 7,3 C 6,7 C 4,4 C 97 % 1018,4 hPa 0,0 l/m 0 min 0 min 0 W/m 12,9 km/h (3 Bft) 97,87 %
03.02.2022 08:22 7,3 C 6,7 C 4,4 C 97 % 1018,3 hPa 0,0 l/m 0 min 0 min 0 W/m 6,4 km/h (2 Bft) 93,62 %
03.02.2022 08:24 7,3 C 6,7 C 4,4 C 97 % 1018,3 hPa 0,0 l/m 0 min 0 min 0 W/m 12,9 km/h (3 Bft) 95,65 %
03.02.2022 08:26 7,3 C 6,7 C 4,4 C 97 % 1018,3 hPa 0,0 l/m 0 min 0 min 0 W/m 16,1 km/h (3 Bft) 93,62 %
03.02.2022 08:28 7,3 C 6,7 C 4,4 C 97 % 1018,2 hPa 0,0 l/m 0 min 0 min 0 W/m 16,1 km/h (3 Bft) 95,74 %
03.02.2022 08:30 7,3 C 6,7 C 4,4 C 97 % 1018,2 hPa 0,0 l/m 0 min 0 min 0 W/m 12,9 km/h (3 Bft) 95,74 %
03.02.2022 08:32 7,3 C 6,7 C 4,4 C 97 % 1018,2 hPa 0,0 l/m 0 min 0 min 0 W/m 16,1 km/h (3 Bft) 95,74 %
03.02.2022 08:34 7,3 C 6,7 C 4,4 C 97 % 1018,0 hPa 0,0 l/m 0 min 0 min 2 W/m 12,9 km/h (3 Bft) 95,65 %
03.02.2022 08:36 7,3 C 6,7 C 4,4 C 97 % 1018,0 hPa 0,0 l/m 0 min 0 min 5 W/m 6,4 km/h (2 Bft) 95,74 %
03.02.2022 08:38 7,3 C 6,7 C 4,4 C 97 % 1018,1 hPa 0,0 l/m 0 min 0 min 3 W/m 22,5 km/h (4 Bft) 95,74 %
03.02.2022 08:40 7,3 C 6,7 C 4,4 C 97 % 1018,2 hPa 0,0 l/m 0 min 0 min 0 W/m 12,9 km/h (3 Bft) 95,74 %
03.02.2022 08:42 7,3 C 6,7 C 4,4 C 97 % 1018,3 hPa 0,2 l/m 0 min 0 min 0 W/m 12,9 km/h (3 Bft) 95,74 %
03.02.2022 08:44 7,3 C 6,7 C 4,4 C 97 % 1018,3 hPa 0,0 l/m 0 min 0 min 4 W/m 16,1 km/h (3 Bft) 97,87 %
03.02.2022 08:46 7,3 C 6,7 C 4,4 C 97 % 1018,3 hPa 0,0 l/m 0 min 0 min 5 W/m 12,9 km/h (3 Bft) 97,83 %
03.02.2022 08:48 7,3 C 6,7 C 4,4 C 97 % 1018,3 hPa 0,0 l/m 0 min 0 min 5 W/m 16,1 km/h (3 Bft) 97,87 %
03.02.2022 08:50 7,3 C 6,7 C 4,4 C 97 % 1018,2 hPa 0,0 l/m 0 min 0 min 5 W/m 19,3 km/h (3 Bft) 97,87 %
03.02.2022 08:52 7,3 C 6,7 C 4,4 C 97 % 1018,2 hPa 0,0 l/m 0 min 0 min 5 W/m 12,9 km/h (3 Bft) 100,00 %
03.02.2022 08:54 7,3 C 6,7 C 4,4 C 97 % 1018,3 hPa 0,0 l/m 0 min 0 min 5 W/m 12,9 km/h (3 Bft) 97,87 %
03.02.2022 08:56 7,3 C 6,7 C 4,4 C 97 % 1018,3 hPa 0,0 l/m 0 min 0 min 5 W/m 12,9 km/h (3 Bft) 97,87 %
03.02.2022 08:58 7,3 C 6,7 C 4,4 C 97 % 1018,4 hPa 0,0 l/m 0 min 0 min 5 W/m 16,1 km/h (3 Bft) 95,65 %
03.02.2022 09:00 7,3 C 6,7 C 4,4 C 97 % 1018,3 hPa 0,0 l/m 0 min 0 min 7 W/m 16,1 km/h (3 Bft) 97,87 %
03.02.2022 09:02 7,3 C 6,7 C 4,4 C 97 % 1018,3 hPa 0,0 l/m 0 min 0 min 7 W/m 16,1 km/h (3 Bft) 97,87 %
03.02.2022 09:04 7,3 C 6,7 C 4,4 C 98 % 1018,1 hPa 0,0 l/m 0 min 0 min 7 W/m 12,9 km/h (3 Bft) 97,87 %
03.02.2022 09:06 7,3 C 6,7 C 4,4 C 97 % 1018,0 hPa 0,0 l/m 0 min 0 min 8 W/m 12,9 km/h (3 Bft) 97,87 %
03.02.2022 09:08 7,3 C 6,7 C 4,4 C 98 % 1018,0 hPa 0,0 l/m 0 min 0 min 9 W/m 12,9 km/h (3 Bft) 97,87 %
03.02.2022 09:10 7,3 C 6,7 C 4,4 C 97 % 1017,9 hPa 0,0 l/m 0 min 0 min 11 W/m 16,1 km/h (3 Bft) 95,65 %
03.02.2022 09:12 7,3 C 6,7 C 4,4 C 98 % 1017,9 hPa 0,0 l/m 0 min 0 min 11 W/m 12,9 km/h (3 Bft) 95,74 %
03.02.2022 09:14 7,3 C 6,7 C 4,4 C 98 % 1017,8 hPa 0,0 l/m 0 min 0 min 12 W/m 12,9 km/h (3 Bft) 95,74 %
03.02.2022 09:16 7,3 C 6,7 C 4,4 C 98 % 1017,7 hPa 0,0 l/m 0 min 0 min 13 W/m 16,1 km/h (3 Bft) 97,87 %
03.02.2022 09:18 7,3 C 6,7 C 4,4 C 98 % 1017,7 hPa 0,0 l/m 0 min 0 min 15 W/m 16,1 km/h (3 Bft) 97,87 %
03.02.2022 09:20 7,3 C 6,7 C 4,4 C 98 % 1017,6 hPa 0,0 l/m 0 min 0 min 16 W/m 9,7 km/h (2 Bft) 95,74 %
03.02.2022 09:22 7,3 C 6,7 C 4,4 C 98 % 1017,5 hPa 0,0 l/m 0 min 0 min 19 W/m 12,9 km/h (3 Bft) 95,65 %
03.02.2022 09:24 7,3 C 6,7 C 4,4 C 98 % 1017,6 hPa 0,0 l/m 0 min 0 min 19 W/m 12,9 km/h (3 Bft) 97,87 %
03.02.2022 09:26 7,2 C 6,7 C 4,4 C 98 % 1017,6 hPa 0,0 l/m 0 min 0 min 19 W/m 12,9 km/h (3 Bft) 97,87 %
03.02.2022 09:28 7,2 C 6,7 C 4,4 C 98 % 1017,5 hPa 0,0 l/m 0 min 0 min 19 W/m 19,3 km/h (3 Bft) 97,87 %
03.02.2022 09:30 7,2 C 6,7 C 4,4 C 97 % 1017,6 hPa 0,0 l/m 0 min 0 min 19 W/m 19,3 km/h (3 Bft) 97,87 %
03.02.2022 09:32 7,2 C 6,7 C 4,4 C 97 % 1017,5 hPa 0,0 l/m 0 min 0 min 18 W/m 22,5 km/h (4 Bft) 97,87 %
03.02.2022 09:34 7,2 C 6,7 C 4,4 C 97 % 1017,5 hPa 0,0 l/m 0 min 0 min 18 W/m 19,3 km/h (3 Bft) 97,83 %
03.02.2022 09:36 7,3 C 6,7 C 4,4 C 97 % 1017,5 hPa 0,0 l/m 0 min 0 min 17 W/m 22,5 km/h (4 Bft) 97,87 %
03.02.2022 09:38 7,2 C 6,7 C 4,4 C 97 % 1017,5 hPa 0,0 l/m 0 min 0 min 16 W/m 16,1 km/h (3 Bft) 95,74 %
03.02.2022 09:40 7,3 C 6,7 C 4,4 C 97 % 1017,5 hPa 0,0 l/m 0 min 0 min 16 W/m 19,3 km/h (3 Bft) 97,87 %
03.02.2022 09:42 7,3 C 6,7 C 4,4 C 97 % 1017,5 hPa 0,0 l/m 0 min 0 min 16 W/m 16,1 km/h (3 Bft) 95,74 %
03.02.2022 09:44 7,3 C 6,7 C 4,4 C 97 % 1017,5 hPa 0,0 l/m 0 min 0 min 16 W/m 16,1 km/h (3 Bft) 97,87 %
03.02.2022 09:46 7,3 C 6,7 C 4,4 C 97 % 1017,5 hPa 0,0 l/m 0 min 0 min 15 W/m 12,9 km/h (3 Bft) 95,65 %
03.02.2022 09:48 7,3 C 6,7 C 4,4 C 97 % 1017,5 hPa 0,0 l/m 0 min 0 min 12 W/m 12,9 km/h (3 Bft) 95,74 %
03.02.2022 09:50 7,3 C 6,7 C 4,4 C 97 % 1017,5 hPa 0,0 l/m 0 min 0 min 13 W/m 16,1 km/h (3 Bft) 97,87 %
03.02.2022 09:52 7,3 C 6,7 C 4,4 C 97 % 1017,5 hPa 0,0 l/m 0 min 0 min 12 W/m 22,5 km/h (4 Bft) 97,87 %
03.02.2022 09:54 7,3 C 6,7 C 4,4 C 97 % 1017,5 hPa 0,0 l/m 0 min 0 min 12 W/m 16,1 km/h (3 Bft) 95,74 %
03.02.2022 09:56 7,3 C 6,7 C 4,4 C 97 % 1017,6 hPa 0,0 l/m 0 min 0 min 14 W/m 16,1 km/h (3 Bft) 97,87 %
03.02.2022 09:58 7,3 C 6,7 C 4,4 C 97 % 1017,6 hPa 0,0 l/m 0 min 0 min 13 W/m 12,9 km/h (3 Bft) 97,83 %
03.02.2022 10:00 7,3 C 6,7 C 4,4 C 97 % 1017,6 hPa 0,0 l/m 0 min 0 min 14 W/m 12,9 km/h (3 Bft) 100,00 %
03.02.2022 10:02 7,3 C 6,7 C 4,4 C 97 % 1017,6 hPa 0,0 l/m 0 min 0 min 12 W/m 16,1 km/h (3 Bft) 95,74 %
03.02.2022 10:04 7,3 C 6,7 C 4,4 C 97 % 1017,6 hPa 0,0 l/m 0 min 0 min 12 W/m 16,1 km/h (3 Bft) 95,74 %
03.02.2022 10:06 7,3 C 6,7 C 4,4 C 97 % 1017,5 hPa 0,0 l/m 0 min 0 min 12 W/m 16,1 km/h (3 Bft) 97,87 %
03.02.2022 10:08 7,3 C 6,7 C 4,4 C 97 % 1017,6 hPa 0,0 l/m 0 min 0 min 13 W/m 16,1 km/h (3 Bft) 97,87 %
03.02.2022 10:10 7,3 C 6,7 C 4,4 C 97 % 1017,6 hPa 0,0 l/m 0 min 0 min 16 W/m 16,1 km/h (3 Bft) 97,83 %
03.02.2022 10:12 7,3 C 6,7 C 4,4 C 97 % 1017,6 hPa 0,0 l/m 0 min 0 min 19 W/m 12,9 km/h (3 Bft) 97,87 %
03.02.2022 10:14 7,3 C 6,7 C 4,4 C 97 % 1017,6 hPa 0,0 l/m 0 min 0 min 19 W/m 12,9 km/h (3 Bft) 97,87 %
03.02.2022 10:16 7,3 C 6,7 C 4,4 C 97 % 1017,5 hPa 0,0 l/m 0 min 0 min 16 W/m 12,9 km/h (3 Bft) 97,87 %
03.02.2022 10:18 7,3 C 6,7 C 4,4 C 97 % 1017,5 hPa 0,0 l/m 0 min 0 min 14 W/m 12,9 km/h (3 Bft) 97,87 %
03.02.2022 10:20 7,3 C 6,7 C 5,0 C 97 % 1017,5 hPa 0,0 l/m 0 min 0 min 14 W/m 16,1 km/h (3 Bft) 97,87 %
03.02.2022 10:22 7,3 C 6,7 C 5,0 C 97 % 1017,5 hPa 0,0 l/m 0 min 0 min 14 W/m 16,1 km/h (3 Bft) 97,83 %
03.02.2022 10:24 7,3 C 6,7 C 5,0 C 97 % 1017,5 hPa 0,0 l/m 0 min 0 min 14 W/m 16,1 km/h (3 Bft) 97,87 %
03.02.2022 10:26 7,3 C 6,7 C 5,0 C 97 % 1017,5 hPa 0,0 l/m 0 min 0 min 12 W/m 19,3 km/h (3 Bft) 97,87 %
03.02.2022 10:28 7,3 C 6,7 C 5,0 C 97 % 1017,5 hPa 0,0 l/m 0 min 0 min 12 W/m 16,1 km/h (3 Bft) 97,87 %
03.02.2022 10:30 7,3 C 7,2 C 5,0 C 97 % 1017,5 hPa 0,0 l/m 0 min 0 min 12 W/m 12,9 km/h (3 Bft) 97,87 %
03.02.2022 10:32 7,3 C 7,2 C 5,0 C 97 % 1017,5 hPa 0,0 l/m 0 min 0 min 17 W/m 12,9 km/h (3 Bft) 97,87 %
03.02.2022 10:34 7,3 C 7,2 C 5,0 C 97 % 1017,5 hPa 0,0 l/m 0 min 0 min 19 W/m 19,3 km/h (3 Bft) 97,83 %
03.02.2022 10:36 7,3 C 7,2 C 5,0 C 96 % 1017,5 hPa 0,0 l/m 0 min 0 min 20 W/m 19,3 km/h (3 Bft) 100,00 %
03.02.2022 10:38 7,3 C 7,2 C 5,0 C 96 % 1017,5 hPa 0,0 l/m 0 min 0 min 21 W/m 25,7 km/h (4 Bft) 100,00 %
03.02.2022 10:40 7,4 C 7,2 C 5,0 C 96 % 1017,4 hPa 0,0 l/m 0 min 0 min 21 W/m 12,9 km/h (3 Bft) 100,00 %
03.02.2022 10:42 7,4 C 7,2 C 5,0 C 96 % 1017,4 hPa 0,0 l/m 0 min 0 min 22 W/m 22,5 km/h (4 Bft) 100,00 %
03.02.2022 10:44 7,4 C 7,2 C 5,0 C 96 % 1017,3 hPa 0,0 l/m 0 min 0 min 23 W/m 16,1 km/h (3 Bft) 95,74 %
03.02.2022 10:46 7,4 C 7,2 C 5,0 C 96 % 1017,3 hPa 0,0 l/m 0 min 0 min 23 W/m 16,1 km/h (3 Bft) 97,83 %
03.02.2022 10:48 7,4 C 7,2 C 5,0 C 96 % 1017,3 hPa 0,0 l/m 0 min 0 min 21 W/m 16,1 km/h (3 Bft) 100,00 %
03.02.2022 10:50 7,4 C 7,2 C 5,0 C 95 % 1017,2 hPa 0,0 l/m 0 min 0 min 20 W/m 12,9 km/h (3 Bft) 100,00 %
03.02.2022 10:52 7,4 C 7,2 C 5,0 C 95 % 1017,2 hPa 0,0 l/m 0 min 0 min 19 W/m 9,7 km/h (2 Bft) 100,00 %
03.02.2022 10:54 7,4 C 7,2 C 5,0 C 95 % 1017,1 hPa 0,0 l/m 0 min 0 min 18 W/m 22,5 km/h (4 Bft) 95,74 %
03.02.2022 10:56 7,4 C 7,2 C 5,0 C 95 % 1017,1 hPa 0,0 l/m 0 min 0 min 19 W/m 16,1 km/h (3 Bft) 97,83 %
03.02.2022 10:58 7,5 C 7,2 C 5,0 C 94 % 1017,1 hPa 0,0 l/m 0 min 0 min 20 W/m 25,7 km/h (4 Bft) 97,87 %
03.02.2022 11:00 7,5 C 7,2 C 5,0 C 94 % 1017,1 hPa 0,0 l/m 0 min 0 min 20 W/m 16,1 km/h (3 Bft) 97,87 %
03.02.2022 11:02 7,6 C 7,2 C 5,0 C 94 % 1017,1 hPa 0,0 l/m 0 min 0 min 21 W/m 12,9 km/h (3 Bft) 95,74 %
03.02.2022 11:04 7,6 C 7,2 C 5,0 C 93 % 1017,1 hPa 0,0 l/m 0 min 0 min 19 W/m 19,3 km/h (3 Bft) 97,87 %
03.02.2022 11:06 7,6 C 7,2 C 5,0 C 93 % 1017,0 hPa 0,0 l/m 0 min 0 min 20 W/m 16,1 km/h (3 Bft) 97,87 %
03.02.2022 11:08 7,6 C 7,2 C 5,0 C 93 % 1017,0 hPa 0,0 l/m 0 min 0 min 20 W/m 19,3 km/h (3 Bft) 97,83 %
03.02.2022 11:10 7,6 C 7,2 C 5,0 C 93 % 1016,9 hPa 0,0 l/m 0 min 0 min 19 W/m 16,1 km/h (3 Bft) 97,87 %
03.02.2022 11:12 7,6 C 7,2 C 5,0 C 93 % 1016,9 hPa 0,0 l/m 0 min 0 min 18 W/m 29,0 km/h (5 Bft) 97,87 %
03.02.2022 11:14 7,6 C 7,2 C 5,0 C 92 % 1017,0 hPa 0,0 l/m 0 min 0 min 16 W/m 22,5 km/h (4 Bft) 97,87 %
03.02.2022 11:16 7,6 C 7,2 C 5,0 C 92 % 1017,0 hPa 0,0 l/m 0 min 0 min 18 W/m 22,5 km/h (4 Bft) 97,87 %
03.02.2022 11:18 7,7 C 7,2 C 5,0 C 92 % 1017,0 hPa 0,0 l/m 0 min 0 min 15 W/m 12,9 km/h (3 Bft) 97,87 %
03.02.2022 11:20 7,7 C 7,2 C 5,0 C 92 % 1017,0 hPa 0,0 l/m 0 min 0 min 15 W/m 12,9 km/h (3 Bft) 97,83 %
03.02.2022 11:22 7,6 C 7,2 C 5,0 C 92 % 1017,1 hPa 0,0 l/m 0 min 0 min 16 W/m 12,9 km/h (3 Bft) 97,87 %
03.02.2022 11:24 7,7 C 7,2 C 5,0 C 92 % 1017,1 hPa 0,0 l/m 0 min 0 min 17 W/m 25,7 km/h (4 Bft) 97,87 %
03.02.2022 11:26 7,6 C 7,2 C 5,0 C 91 % 1017,1 hPa 0,0 l/m 0 min 0 min 19 W/m 29,0 km/h (5 Bft) 95,74 %
03.02.2022 11:28 7,6 C 7,2 C 5,0 C 91 % 1017,1 hPa 0,0 l/m 0 min 0 min 16 W/m 12,9 km/h (3 Bft) 97,87 %
03.02.2022 11:30 7,6 C 7,2 C 5,0 C 91 % 1017,2 hPa 0,0 l/m 0 min 0 min 16 W/m 12,9 km/h (3 Bft) 97,87 %
03.02.2022 11:32 7,6 C 7,2 C 5,0 C 91 % 1017,3 hPa 0,0 l/m 0 min 0 min 16 W/m 16,1 km/h (3 Bft) 97,83 %
03.02.2022 11:34 7,6 C 7,2 C 5,0 C 91 % 1017,3 hPa 0,0 l/m 0 min 0 min 17 W/m 22,5 km/h (4 Bft) 97,87 %
03.02.2022 11:36 7,6 C 7,2 C 5,0 C 90 % 1017,3 hPa 0,0 l/m 0 min 0 min 17 W/m 22,5 km/h (4 Bft) 97,87 %
03.02.2022 11:38 7,6 C 7,2 C 5,0 C 90 % 1017,2 hPa 0,0 l/m 0 min 0 min 17 W/m 25,7 km/h (4 Bft) 97,87 %
03.02.2022 11:40 7,5 C 7,2 C 5,0 C 90 % 1017,3 hPa 0,0 l/m 0 min 0 min 18 W/m 9,7 km/h (2 Bft) 100,00 %
03.02.2022 11:42 7,5 C 7,2 C 5,0 C 89 % 1017,3 hPa 0,0 l/m 0 min 0 min 22 W/m 19,3 km/h (3 Bft) 100,00 %
03.02.2022 11:44 7,5 C 7,2 C 5,0 C 89 % 1017,2 hPa 0,0 l/m 0 min 0 min 22 W/m 16,1 km/h (3 Bft) 100,00 %
03.02.2022 11:46 7,5 C 7,2 C 5,0 C 89 % 1017,2 hPa 0,0 l/m 0 min 0 min 27 W/m 12,9 km/h (3 Bft) 100,00 %
03.02.2022 11:48 7,5 C 7,2 C 5,0 C 89 % 1017,1 hPa 0,0 l/m 0 min 0 min 37 W/m 9,7 km/h (2 Bft) 97,87 %
03.02.2022 11:50 7,5 C 7,2 C 5,0 C 89 % 1017,0 hPa 0,0 l/m 0 min 0 min 41 W/m 48,3 km/h (6 Bft) 97,87 %
03.02.2022 11:52 7,4 C 7,2 C 5,0 C 89 % 1017,0 hPa 0,0 l/m 0 min 0 min 45 W/m 25,7 km/h (4 Bft) 97,87 %
03.02.2022 11:54 7,4 C 7,2 C 5,0 C 89 % 1017,0 hPa 0,0 l/m 0 min 0 min 43 W/m 22,5 km/h (4 Bft) 100,00 %
03.02.2022 11:56 7,4 C 7,2 C 5,0 C 89 % 1017,0 hPa 0,0 l/m 0 min 0 min 42 W/m 12,9 km/h (3 Bft) 100,00 %
03.02.2022 11:58 7,4 C 7,2 C 4,4 C 89 % 1017,0 hPa 0,0 l/m 0 min 0 min 40 W/m 22,5 km/h (4 Bft) 100,00 %
03.02.2022 12:00 7,4 C 7,2 C 4,4 C 89 % 1016,9 hPa 0,0 l/m 0 min 0 min 38 W/m 19,3 km/h (3 Bft) 97,87 %
03.02.2022 12:02 7,4 C 7,2 C 4,4 C 88 % 1016,9 hPa 0,0 l/m 0 min 0 min 38 W/m 12,9 km/h (3 Bft) 97,87 %
03.02.2022 12:04 7,4 C 6,7 C 4,4 C 89 % 1016,9 hPa 0,0 l/m 0 min 0 min 36 W/m 12,9 km/h (3 Bft) 95,74 %
03.02.2022 12:08 7,4 C 6,7 C 4,4 C 89 % 1016,8 hPa 0,0 l/m 0 min 0 min 36 W/m 22,5 km/h (4 Bft) 97,85 %
03.02.2022 12:10 7,4 C 6,7 C 4,4 C 88 % 1016,9 hPa 0,0 l/m 0 min 0 min 35 W/m 12,9 km/h (3 Bft) 95,74 %
03.02.2022 12:12 7,4 C 6,7 C 4,4 C 89 % 1016,9 hPa 0,0 l/m 0 min 0 min 35 W/m 16,1 km/h (3 Bft) 95,74 %
03.02.2022 12:14 7,4 C 6,7 C 4,4 C 89 % 1016,8 hPa 0,0 l/m 0 min 0 min 39 W/m 22,5 km/h (4 Bft) 93,62 %
03.02.2022 12:16 7,3 C 6,7 C 4,4 C 89 % 1016,7 hPa 0,0 l/m 0 min 0 min 37 W/m 12,9 km/h (3 Bft) 95,74 %
03.02.2022 12:18 7,3 C 6,7 C 4,4 C 89 % 1016,6 hPa 0,0 l/m 0 min 0 min 39 W/m 12,9 km/h (3 Bft) 95,74 %
03.02.2022 12:20 7,3 C 6,7 C 4,4 C 89 % 1016,6 hPa 0,0 l/m 0 min 0 min 35 W/m 12,9 km/h (3 Bft) 95,65 %
03.02.2022 12:22 7,3 C 6,7 C 4,4 C 89 % 1016,6 hPa 0,0 l/m 0 min 0 min 33 W/m 16,1 km/h (3 Bft) 95,74 %
03.02.2022 12:24 7,3 C 6,7 C 4,4 C 89 % 1016,6 hPa 0,0 l/m 0 min 0 min 34 W/m 12,9 km/h (3 Bft) 95,74 %
03.02.2022 12:26 7,3 C 6,7 C 4,4 C 89 % 1016,6 hPa 0,0 l/m 0 min 0 min 35 W/m 9,7 km/h (2 Bft) 95,74 %
03.02.2022 12:28 7,3 C 6,7 C 4,4 C 89 % 1016,5 hPa 0,0 l/m 0 min 0 min 35 W/m 9,7 km/h (2 Bft) 93,62 %
03.02.2022 12:30 7,3 C 6,7 C 4,4 C 89 % 1016,5 hPa 0,0 l/m 0 min 0 min 35 W/m 12,9 km/h (3 Bft) 93,62 %
03.02.2022 12:32 7,3 C 6,7 C 4,4 C 89 % 1016,5 hPa 0,0 l/m 0 min 0 min 33 W/m 16,1 km/h (3 Bft) 95,65 %
03.02.2022 12:34 7,3 C 6,7 C 4,4 C 89 % 1016,5 hPa 0,0 l/m 0 min 0 min 32 W/m 12,9 km/h (3 Bft) 95,74 %
03.02.2022 12:36 7,3 C 6,7 C 4,4 C 89 % 1016,6 hPa 0,0 l/m 0 min 0 min 31 W/m 12,9 km/h (3 Bft) 97,87 %
03.02.2022 12:38 7,3 C 6,7 C 4,4 C 89 % 1016,7 hPa 0,0 l/m 0 min 0 min 29 W/m 6,4 km/h (2 Bft) 97,87 %
03.02.2022 12:40 7,3 C 6,7 C 4,4 C 89 % 1016,6 hPa 0,0 l/m 0 min 0 min 29 W/m 9,7 km/h (2 Bft) 97,87 %
03.02.2022 12:42 7,2 C 6,7 C 4,4 C 89 % 1016,6 hPa 0,0 l/m 0 min 0 min 31 W/m 9,7 km/h (2 Bft) 97,87 %
03.02.2022 12:44 7,2 C 6,7 C 4,4 C 90 % 1016,5 hPa 0,0 l/m 0 min 0 min 32 W/m 6,4 km/h (2 Bft) 97,83 %
03.02.2022 12:46 7,2 C 6,7 C 4,4 C 90 % 1016,5 hPa 0,0 l/m 0 min 0 min 32 W/m 6,4 km/h (2 Bft) 97,87 %
03.02.2022 12:48 7,2 C 6,7 C 4,4 C 90 % 1016,5 hPa 0,0 l/m 0 min 0 min 37 W/m 12,9 km/h (3 Bft) 95,74 %
03.02.2022 12:50 7,2 C 6,7 C 4,4 C 90 % 1016,4 hPa 0,0 l/m 0 min 0 min 39 W/m 12,9 km/h (3 Bft) 95,74 %
03.02.2022 12:52 7,2 C 6,7 C 3,9 C 90 % 1016,5 hPa 0,0 l/m 0 min 0 min 35 W/m 12,9 km/h (3 Bft) 97,37 %
03.02.2022 12:54 7,1 C 6,7 C 3,9 C 90 % 1016,5 hPa 0,0 l/m 0 min 0 min 35 W/m 6,4 km/h (2 Bft) 97,87 %
03.02.2022 12:56 7,1 C 6,7 C 3,9 C 90 % 1016,4 hPa 0,0 l/m 0 min 0 min 41 W/m 6,4 km/h (2 Bft) 100,00 %
03.02.2022 12:58 7,1 C 6,7 C 3,9 C 90 % 1016,5 hPa 0,0 l/m 0 min 0 min 45 W/m 6,4 km/h (2 Bft) 100,00 %
03.02.2022 13:00 7,1 C 6,7 C 3,9 C 91 % 1016,4 hPa 0,0 l/m 0 min 0 min 46 W/m 6,4 km/h (2 Bft) 100,00 %
03.02.2022 13:02 7,1 C 6,7 C 4,4 C 91 % 1016,3 hPa 0,0 l/m 0 min 0 min 47 W/m 6,4 km/h (2 Bft) 97,87 %
03.02.2022 13:04 7,1 C 6,7 C 4,4 C 91 % 1016,3 hPa 0,0 l/m 0 min 0 min 42 W/m 6,4 km/h (2 Bft) 100,00 %
03.02.2022 13:06 7,1 C 6,7 C 4,4 C 91 % 1016,3 hPa 0,0 l/m 0 min 0 min 39 W/m 9,7 km/h (2 Bft) 100,00 %
03.02.2022 13:08 7,1 C 6,7 C 4,4 C 91 % 1016,2 hPa 0,0 l/m 0 min 0 min 37 W/m 6,4 km/h (2 Bft) 100,00 %
03.02.2022 13:10 7,1 C 6,7 C 4,4 C 91 % 1016,2 hPa 0,0 l/m 0 min 0 min 34 W/m 6,4 km/h (2 Bft) 97,87 %
03.02.2022 13:12 7,1 C 6,7 C 4,4 C 91 % 1016,2 hPa 0,0 l/m 0 min 0 min 34 W/m 6,4 km/h (2 Bft) 100,00 %
03.02.2022 13:14 7,1 C 6,7 C 4,4 C 91 % 1016,2 hPa 0,0 l/m 0 min 0 min 31 W/m 6,4 km/h (2 Bft) 100,00 %
03.02.2022 13:16 7,1 C 6,7 C 4,4 C 91 % 1016,2 hPa 0,0 l/m 0 min 0 min 29 W/m 22,5 km/h (4 Bft) 100,00 %
03.02.2022 13:18 7,1 C 6,7 C 4,4 C 91 % 1016,1 hPa 0,0 l/m 0 min 0 min 28 W/m 16,1 km/h (3 Bft) 95,74 %
03.02.2022 13:20 7,1 C 6,7 C 4,4 C 90 % 1016,1 hPa 0,0 l/m 0 min 0 min 26 W/m 19,3 km/h (3 Bft) 97,83 %
03.02.2022 13:22 7,1 C 6,7 C 4,4 C 90 % 1016,1 hPa 0,0 l/m 0 min 0 min 26 W/m 9,7 km/h (2 Bft) 100,00 %
03.02.2022 13:24 7,1 C 6,7 C 4,4 C 90 % 1016,1 hPa 0,0 l/m 0 min 0 min 26 W/m 19,3 km/h (3 Bft) 100,00 %
03.02.2022 13:26 7,1 C 6,7 C 4,4 C 90 % 1016,0 hPa 0,0 l/m 0 min 0 min 28 W/m 12,9 km/h (3 Bft) 100,00 %
03.02.2022 13:28 7,1 C 6,7 C 4,4 C 90 % 1016,0 hPa 0,0 l/m 0 min 0 min 31 W/m 9,7 km/h (2 Bft) 100,00 %
03.02.2022 13:30 7,2 C 6,7 C 4,4 C 90 % 1015,9 hPa 0,0 l/m 0 min 0 min 30 W/m 12,9 km/h (3 Bft) 97,87 %
03.02.2022 13:32 7,2 C 6,7 C 4,4 C 90 % 1015,9 hPa 0,0 l/m 0 min 0 min 26 W/m 22,5 km/h (4 Bft) 97,83 %
03.02.2022 13:34 7,2 C 6,7 C 4,4 C 90 % 1015,8 hPa 0,0 l/m 0 min 0 min 25 W/m 16,1 km/h (3 Bft) 100,00 %
03.02.2022 13:36 7,2 C 6,7 C 4,4 C 90 % 1015,7 hPa 0,0 l/m 0 min 0 min 25 W/m 12,9 km/h (3 Bft) 100,00 %
03.02.2022 13:38 7,2 C 6,7 C 4,4 C 89 % 1015,7 hPa 0,0 l/m 0 min 0 min 25 W/m 29,0 km/h (5 Bft) 97,87 %
03.02.2022 13:40 7,2 C 6,7 C 4,4 C 89 % 1015,6 hPa 0,0 l/m 0 min 0 min 26 W/m 22,5 km/h (4 Bft) 97,87 %
03.02.2022 13:42 7,2 C 6,7 C 4,4 C 89 % 1015,5 hPa 0,0 l/m 0 min 0 min 27 W/m 19,3 km/h (3 Bft) 97,87 %
03.02.2022 13:44 7,2 C 6,7 C 4,4 C 88 % 1015,4 hPa 0,0 l/m 0 min 0 min 26 W/m 22,5 km/h (4 Bft) 95,65 %
03.02.2022 13:46 7,2 C 6,7 C 4,4 C 88 % 1015,4 hPa 0,0 l/m 0 min 0 min 29 W/m 19,3 km/h (3 Bft) 97,87 %
03.02.2022 13:48 7,2 C 6,7 C 4,4 C 88 % 1015,4 hPa 0,0 l/m 0 min 0 min 32 W/m 32,2 km/h (5 Bft) 95,74 %
03.02.2022 13:50 7,2 C 6,7 C 4,4 C 88 % 1015,4 hPa 0,0 l/m 0 min 0 min 35 W/m 19,3 km/h (3 Bft) 97,87 %
03.02.2022 13:52 7,3 C 6,7 C 4,4 C 88 % 1015,3 hPa 0,0 l/m 0 min 0 min 38 W/m 19,3 km/h (3 Bft) 95,74 %
03.02.2022 13:54 7,3 C 6,7 C 4,4 C 88 % 1015,3 hPa 0,0 l/m 0 min 0 min 35 W/m 38,6 km/h (5 Bft) 95,83 %
03.02.2022 13:56 7,3 C 6,7 C 4,4 C 87 % 1015,3 hPa 0,0 l/m 0 min 0 min 35 W/m 38,6 km/h (5 Bft) 95,65 %
03.02.2022 13:58 7,3 C 6,7 C 4,4 C 87 % 1015,3 hPa 0,0 l/m 0 min 0 min 38 W/m 12,9 km/h (3 Bft) 95,74 %
03.02.2022 14:00 7,3 C 6,7 C 4,4 C 87 % 1015,4 hPa 0,0 l/m 0 min 0 min 37 W/m 12,9 km/h (3 Bft) 97,87 %
03.02.2022 14:02 7,3 C 6,7 C 4,4 C 87 % 1015,3 hPa 0,0 l/m 0 min 0 min 35 W/m 12,9 km/h (3 Bft) 97,83 %
03.02.2022 14:04 7,3 C 6,7 C 4,4 C 87 % 1015,4 hPa 0,0 l/m 0 min 0 min 33 W/m 16,1 km/h (3 Bft) 95,74 %
03.02.2022 14:06 7,3 C 6,7 C 4,4 C 87 % 1015,4 hPa 0,0 l/m 0 min 0 min 32 W/m 12,9 km/h (3 Bft) 95,83 %
03.02.2022 14:08 7,3 C 6,7 C 4,4 C 87 % 1015,3 hPa 0,0 l/m 0 min 0 min 33 W/m 16,1 km/h (3 Bft) 95,65 %
03.02.2022 14:10 7,3 C 6,7 C 4,4 C 87 % 1015,4 hPa 0,0 l/m 0 min 0 min 32 W/m 12,9 km/h (3 Bft) 95,74 %
03.02.2022 14:12 7,3 C 6,7 C 4,4 C 87 % 1015,4 hPa 0,0 l/m 0 min 0 min 29 W/m 22,5 km/h (4 Bft) 93,62 %
03.02.2022 14:14 7,3 C 6,7 C 4,4 C 87 % 1015,3 hPa 0,0 l/m 0 min 0 min 26 W/m 25,7 km/h (4 Bft) 95,74 %
03.02.2022 14:16 7,3 C 6,7 C 4,4 C 87 % 1015,3 hPa 0,0 l/m 0 min 0 min 26 W/m 19,3 km/h (3 Bft) 93,62 %
03.02.2022 14:18 7,3 C 6,7 C 4,4 C 87 % 1015,2 hPa 0,0 l/m 0 min 0 min 26 W/m 9,7 km/h (2 Bft) 95,74 %
03.02.2022 14:20 7,3 C 6,7 C 4,4 C 87 % 1015,2 hPa 0,0 l/m 0 min 0 min 22 W/m 19,3 km/h (3 Bft) 95,65 %
03.02.2022 14:22 7,3 C 6,7 C 4,4 C 87 % 1015,2 hPa 0,0 l/m 0 min 0 min 25 W/m 19,3 km/h (3 Bft) 93,62 %
03.02.2022 14:24 7,3 C 6,7 C 4,4 C 87 % 1015,2 hPa 0,0 l/m 0 min 0 min 28 W/m 29,0 km/h (5 Bft) 97,87 %
03.02.2022 14:26 7,3 C 6,7 C 4,4 C 87 % 1015,2 hPa 0,0 l/m 0 min 0 min 24 W/m 16,1 km/h (3 Bft) 95,74 %
03.02.2022 14:28 7,3 C 6,7 C 4,4 C 88 % 1015,2 hPa 0,0 l/m 0 min 0 min 24 W/m 19,3 km/h (3 Bft) 97,87 %
03.02.2022 14:30 7,3 C 6,7 C 3,9 C 88 % 1015,2 hPa 0,0 l/m 0 min 0 min 21 W/m 25,7 km/h (4 Bft) 100,00 %
03.02.2022 14:32 7,2 C 6,7 C 3,9 C 88 % 1015,3 hPa 0,0 l/m 0 min 0 min 20 W/m 12,9 km/h (3 Bft) 100,00 %
03.02.2022 14:34 7,2 C 6,7 C 3,9 C 88 % 1015,3 hPa 0,0 l/m 0 min 0 min 16 W/m 19,3 km/h (3 Bft) 100,00 %
03.02.2022 14:36 7,2 C 6,7 C 3,9 C 88 % 1015,3 hPa 0,0 l/m 0 min 0 min 13 W/m 25,7 km/h (4 Bft) 100,00 %
03.02.2022 14:38 7,2 C 6,7 C 3,9 C 88 % 1015,2 hPa 0,0 l/m 0 min 0 min 12 W/m 29,0 km/h (5 Bft) 100,00 %
03.02.2022 14:40 7,1 C 6,7 C 3,9 C 88 % 1015,2 hPa 0,0 l/m 0 min 0 min 11 W/m 29,0 km/h (5 Bft) 100,00 %
03.02.2022 14:42 7,1 C 6,7 C 3,9 C 88 % 1015,2 hPa 0,0 l/m 0 min 0 min 12 W/m 25,7 km/h (4 Bft) 100,00 %
03.02.2022 14:44 7,1 C 6,7 C 3,9 C 88 % 1015,2 hPa 0,0 l/m 0 min 0 min 12 W/m 32,2 km/h (5 Bft) 100,00 %
03.02.2022 14:46 7,0 C 6,1 C 3,9 C 89 % 1015,2 hPa 0,0 l/m 0 min 0 min 14 W/m 22,5 km/h (4 Bft) 100,00 %
03.02.2022 14:48 7,0 C 6,1 C 3,9 C 89 % 1015,2 hPa 0,0 l/m 0 min 0 min 13 W/m 25,7 km/h (4 Bft) 100,00 %
03.02.2022 14:50 6,9 C 6,1 C 3,9 C 89 % 1015,2 hPa 0,0 l/m 0 min 0 min 14 W/m 22,5 km/h (4 Bft) 97,87 %
03.02.2022 14:52 6,9 C 6,1 C 3,9 C 89 % 1015,2 hPa 0,0 l/m 0 min 0 min 15 W/m 29,0 km/h (5 Bft) 100,00 %
03.02.2022 14:54 6,9 C 6,1 C 3,9 C 89 % 1015,2 hPa 0,0 l/m 0 min 0 min 19 W/m 22,5 km/h (4 Bft) 100,00 %
03.02.2022 14:56 6,9 C 6,1 C 3,9 C 89 % 1015,1 hPa 0,0 l/m 0 min 0 min 25 W/m 22,5 km/h (4 Bft) 100,00 %
03.02.2022 14:58 6,9 C 6,1 C 3,9 C 89 % 1015,1 hPa 0,0 l/m 0 min 0 min 27 W/m 25,7 km/h (4 Bft) 100,00 %
03.02.2022 15:00 6,9 C 6,1 C 3,9 C 89 % 1015,0 hPa 0,0 l/m 0 min 0 min 27 W/m 22,5 km/h (4 Bft) 97,87 %
03.02.2022 15:02 6,9 C 6,1 C 3,9 C 89 % 1015,0 hPa 0,0 l/m 0 min 0 min 32 W/m 16,1 km/h (3 Bft) 97,87 %
03.02.2022 15:04 6,9 C 6,7 C 3,9 C 89 % 1015,0 hPa 0,0 l/m 0 min 0 min 33 W/m 16,1 km/h (3 Bft) 97,87 %
03.02.2022 15:06 6,9 C 6,7 C 3,9 C 89 % 1014,9 hPa 0,0 l/m 0 min 0 min 40 W/m 6,4 km/h (2 Bft) 97,83 %
03.02.2022 15:08 6,9 C 6,7 C 3,9 C 90 % 1015,0 hPa 0,0 l/m 0 min 0 min 62 W/m 29,0 km/h (5 Bft) 97,87 %
03.02.2022 15:10 6,9 C 6,7 C 3,9 C 90 % 1015,0 hPa 0,0 l/m 0 min 0 min 69 W/m 22,5 km/h (4 Bft) 95,74 %
03.02.2022 15:12 6,9 C 6,7 C 3,9 C 90 % 1014,9 hPa 0,0 l/m 0 min 0 min 83 W/m 25,7 km/h (4 Bft) 95,74 %
03.02.2022 15:14 6,9 C 6,7 C 3,9 C 90 % 1014,9 hPa 0,0 l/m 0 min 0 min 115 W/m 19,3 km/h (3 Bft) 97,87 %
03.02.2022 15:16 6,9 C 6,7 C 3,9 C 90 % 1014,9 hPa 0,0 l/m 0 min 0 min 109 W/m 22,5 km/h (4 Bft) 97,87 %
03.02.2022 15:18 6,9 C 6,7 C 3,9 C 90 % 1014,8 hPa 0,0 l/m 0 min 0 min 93 W/m 25,7 km/h (4 Bft) 97,83 %
03.02.2022 15:20 7,0 C 7,2 C 4,4 C 90 % 1014,9 hPa 0,0 l/m 0 min 0 min 119 W/m 22,5 km/h (4 Bft) 97,87 %
03.02.2022 15:22 7,1 C 7,2 C 4,4 C 90 % 1014,8 hPa 0,0 l/m 2 min 0 min 130 W/m 22,5 km/h (4 Bft) 97,87 %
03.02.2022 15:24 7,1 C 7,2 C 4,4 C 89 % 1014,8 hPa 0,0 l/m 2 min 0 min 135 W/m 25,7 km/h (4 Bft) 97,87 %
03.02.2022 15:26 7,1 C 7,2 C 4,4 C 89 % 1014,8 hPa 0,0 l/m 2 min 0 min 148 W/m 25,7 km/h (4 Bft) 97,87 %
03.02.2022 15:28 7,1 C 7,2 C 4,4 C 89 % 1014,8 hPa 0,0 l/m 2 min 0 min 139 W/m 25,7 km/h (4 Bft) 95,74 %
03.02.2022 15:30 7,2 C 7,2 C 4,4 C 89 % 1014,7 hPa 0,0 l/m 2 min 0 min 161 W/m 35,4 km/h (5 Bft) 97,83 %
03.02.2022 15:32 7,2 C 7,2 C 4,4 C 89 % 1014,6 hPa 0,0 l/m 2 min 0 min 138 W/m 16,1 km/h (3 Bft) 96,23 %
03.02.2022 15:34 7,2 C 7,2 C 4,4 C 89 % 1014,6 hPa 0,0 l/m 2 min 0 min 116 W/m 16,1 km/h (3 Bft) 97,87 %
03.02.2022 15:36 7,2 C 7,2 C 4,4 C 89 % 1014,6 hPa 0,0 l/m 2 min 0 min 114 W/m 19,3 km/h (3 Bft) 97,87 %
03.02.2022 15:38 7,3 C 7,2 C 4,4 C 89 % 1014,5 hPa 0,0 l/m 0 min 0 min 97 W/m 38,6 km/h (5 Bft) 97,87 %
03.02.2022 15:40 7,3 C 7,2 C 4,4 C 88 % 1014,4 hPa 0,0 l/m 0 min 0 min 96 W/m 25,7 km/h (4 Bft) 97,83 %
03.02.2022 15:42 7,2 C 7,2 C 4,4 C 88 % 1014,5 hPa 0,0 l/m 0 min 0 min 93 W/m 32,2 km/h (5 Bft) 93,62 %
03.02.2022 15:44 7,2 C 7,2 C 4,4 C 88 % 1014,5 hPa 0,0 l/m 0 min 0 min 91 W/m 19,3 km/h (3 Bft) 95,74 %
03.02.2022 15:46 7,2 C 7,2 C 4,4 C 88 % 1014,5 hPa 0,0 l/m 0 min 0 min 87 W/m 22,5 km/h (4 Bft) 95,74 %
03.02.2022 15:48 7,2 C 7,2 C 4,4 C 88 % 1014,4 hPa 0,0 l/m 0 min 0 min 84 W/m 29,0 km/h (5 Bft) 100,00 %
03.02.2022 15:50 7,2 C 6,7 C 4,4 C 88 % 1014,4 hPa 0,0 l/m 0 min 0 min 78 W/m 22,5 km/h (4 Bft) 100,00 %
03.02.2022 15:52 7,2 C 7,2 C 4,4 C 88 % 1014,4 hPa 0,0 l/m 0 min 0 min 74 W/m 22,5 km/h (4 Bft) 100,00 %
03.02.2022 15:54 7,2 C 7,2 C 4,4 C 88 % 1014,3 hPa 0,0 l/m 0 min 0 min 72 W/m 22,5 km/h (4 Bft) 100,00 %
03.02.2022 15:56 7,2 C 7,2 C 4,4 C 88 % 1014,3 hPa 0,0 l/m 0 min 0 min 71 W/m 19,3 km/h (3 Bft) 97,87 %
03.02.2022 15:58 7,2 C 6,7 C 4,4 C 88 % 1014,3 hPa 0,0 l/m 0 min 0 min 72 W/m 25,7 km/h (4 Bft) 97,87 %
03.02.2022 16:00 7,3 C 7,2 C 4,4 C 88 % 1014,4 hPa 0,0 l/m 0 min 0 min 67 W/m 16,1 km/h (3 Bft) 97,87 %
03.02.2022 16:02 7,3 C 7,2 C 4,4 C 88 % 1014,4 hPa 0,0 l/m 0 min 0 min 60 W/m 19,3 km/h (3 Bft) 97,56 %
03.02.2022 16:04 7,3 C 6,7 C 4,4 C 88 % 1014,3 hPa 0,0 l/m 0 min 0 min 55 W/m 29,0 km/h (5 Bft) 97,87 %
03.02.2022 16:06 7,2 C 6,7 C 3,9 C 88 % 1014,4 hPa 0,0 l/m 0 min 0 min 48 W/m 22,5 km/h (4 Bft) 95,65 %
03.02.2022 16:08 7,2 C 6,7 C 3,9 C 88 % 1014,4 hPa 0,0 l/m 0 min 0 min 42 W/m 22,5 km/h (4 Bft) 97,87 %
03.02.2022 16:10 7,2 C 6,7 C 3,9 C 88 % 1014,3 hPa 0,0 l/m 0 min 0 min 36 W/m 22,5 km/h (4 Bft) 97,87 %
03.02.2022 16:12 7,2 C 6,7 C 3,9 C 88 % 1014,3 hPa 0,0 l/m 0 min 0 min 34 W/m 25,7 km/h (4 Bft) 95,74 %
03.02.2022 16:14 7,2 C 6,7 C 3,9 C 88 % 1014,3 hPa 0,0 l/m 0 min 0 min 34 W/m 25,7 km/h (4 Bft) 95,74 %
03.02.2022 16:16 7,2 C 6,7 C 3,9 C 88 % 1014,2 hPa 0,0 l/m 0 min 0 min 34 W/m 19,3 km/h (3 Bft) 96,15 %
03.02.2022 16:18 7,3 C 6,7 C 3,9 C 88 % 1014,3 hPa 0,0 l/m 0 min 0 min 42 W/m 12,9 km/h (3 Bft) 97,87 %
03.02.2022 16:20 7,3 C 6,7 C 4,4 C 88 % 1014,3 hPa 0,0 l/m 0 min 0 min 47 W/m 25,7 km/h (4 Bft) 97,87 %
03.02.2022 16:22 7,3 C 6,7 C 4,4 C 88 % 1014,2 hPa 0,0 l/m 0 min 0 min 47 W/m 22,5 km/h (4 Bft) 97,87 %
03.02.2022 16:24 7,3 C 6,7 C 4,4 C 88 % 1014,2 hPa 0,0 l/m 0 min 0 min 45 W/m 19,3 km/h (3 Bft) 97,87 %
03.02.2022 16:26 7,3 C 6,7 C 4,4 C 88 % 1014,2 hPa 0,0 l/m 0 min 0 min 45 W/m 19,3 km/h (3 Bft) 93,62 %
03.02.2022 16:28 7,3 C 6,7 C 4,4 C 88 % 1014,1 hPa 0,0 l/m 0 min 0 min 54 W/m 19,3 km/h (3 Bft) 93,48 %
03.02.2022 16:30 7,3 C 6,7 C 4,4 C 88 % 1014,1 hPa 0,0 l/m 0 min 0 min 51 W/m 29,0 km/h (5 Bft) 95,74 %
03.02.2022 16:32 7,3 C 6,7 C 4,4 C 87 % 1014,1 hPa 0,0 l/m 0 min 0 min 51 W/m 25,7 km/h (4 Bft) 97,87 %
03.02.2022 16:34 7,3 C 6,7 C 4,4 C 87 % 1014,0 hPa 0,0 l/m 0 min 0 min 52 W/m 25,7 km/h (4 Bft) 97,87 %
03.02.2022 16:36 7,3 C 6,7 C 4,4 C 87 % 1014,1 hPa 0,0 l/m 0 min 0 min 35 W/m 25,7 km/h (4 Bft) 97,87 %
03.02.2022 16:38 7,3 C 6,7 C 3,9 C 87 % 1014,1 hPa 0,0 l/m 0 min 0 min 24 W/m 9,7 km/h (2 Bft) 97,83 %
03.02.2022 16:40 7,3 C 6,7 C 3,9 C 87 % 1014,0 hPa 0,0 l/m 0 min 0 min 27 W/m 25,7 km/h (4 Bft) 97,87 %
03.02.2022 16:42 7,3 C 6,7 C 3,9 C 87 % 1013,9 hPa 0,0 l/m 0 min 0 min 30 W/m 16,1 km/h (3 Bft) 97,87 %
03.02.2022 16:44 7,3 C 6,7 C 3,9 C 88 % 1013,9 hPa 0,0 l/m 0 min 0 min 26 W/m 12,9 km/h (3 Bft) 97,87 %
03.02.2022 16:46 7,3 C 6,7 C 3,9 C 88 % 1014,0 hPa 0,0 l/m 0 min 0 min 23 W/m 16,1 km/h (3 Bft) 95,74 %
03.02.2022 16:48 7,3 C 6,7 C 3,9 C 88 % 1014,0 hPa 0,0 l/m 0 min 0 min 22 W/m 16,1 km/h (3 Bft) 97,87 %
03.02.2022 16:50 7,3 C 6,7 C 3,9 C 88 % 1014,0 hPa 0,0 l/m 0 min 0 min 22 W/m 22,5 km/h (4 Bft) 95,65 %
03.02.2022 16:52 7,3 C 6,7 C 3,9 C 88 % 1013,9 hPa 0,0 l/m 0 min 0 min 17 W/m 22,5 km/h (4 Bft) 95,74 %
03.02.2022 16:54 7,3 C 6,7 C 3,9 C 88 % 1014,0 hPa 0,0 l/m 0 min 0 min 14 W/m 22,5 km/h (4 Bft) 97,87 %
03.02.2022 16:56 7,3 C 6,7 C 3,9 C 88 % 1013,9 hPa 0,0 l/m 0 min 0 min 12 W/m 16,1 km/h (3 Bft) 97,87 %
03.02.2022 16:58 7,3 C 6,7 C 3,9 C 88 % 1014,0 hPa 0,0 l/m 0 min 0 min 12 W/m 12,9 km/h (3 Bft) 95,74 %
03.02.2022 17:00 7,3 C 6,7 C 3,9 C 88 % 1013,9 hPa 0,0 l/m 0 min 0 min 12 W/m 19,3 km/h (3 Bft) 97,87 %
03.02.2022 17:02 7,3 C 6,7 C 3,9 C 88 % 1013,9 hPa 0,0 l/m 0 min 0 min 12 W/m 19,3 km/h (3 Bft) 95,65 %
03.02.2022 17:04 7,2 C 6,7 C 3,9 C 88 % 1013,9 hPa 0,0 l/m 0 min 0 min 12 W/m 25,7 km/h (4 Bft) 97,87 %
03.02.2022 17:06 7,2 C 6,7 C 3,9 C 88 % 1013,8 hPa 0,0 l/m 0 min 0 min 10 W/m 12,9 km/h (3 Bft) 95,74 %
03.02.2022 17:08 7,2 C 6,7 C 3,9 C 88 % 1013,9 hPa 0,0 l/m 0 min 0 min 9 W/m 16,1 km/h (3 Bft) 97,87 %
03.02.2022 17:10 7,2 C 6,7 C 3,9 C 88 % 1013,8 hPa 0,0 l/m 0 min 0 min 9 W/m 9,7 km/h (2 Bft) 95,74 %
03.02.2022 17:12 7,2 C 6,7 C 3,9 C 88 % 1013,8 hPa 0,0 l/m 0 min 0 min 9 W/m 16,1 km/h (3 Bft) 97,87 %
03.02.2022 17:14 7,2 C 6,7 C 3,9 C 88 % 1013,9 hPa 0,0 l/m 0 min 0 min 9 W/m 16,1 km/h (3 Bft) 97,83 %
03.02.2022 17:16 7,2 C 6,7 C 3,9 C 88 % 1013,8 hPa 0,0 l/m 0 min 0 min 8 W/m 19,3 km/h (3 Bft) 100,00 %
03.02.2022 17:18 7,2 C 6,7 C 3,9 C 88 % 1013,8 hPa 0,0 l/m 0 min 0 min 7 W/m 16,1 km/h (3 Bft) 100,00 %
03.02.2022 17:20 7,2 C 6,7 C 3,9 C 88 % 1013,9 hPa 0,0 l/m 0 min 0 min 5 W/m 16,1 km/h (3 Bft) 100,00 %
03.02.2022 17:22 7,2 C 6,7 C 3,9 C 88 % 1013,9 hPa 0,0 l/m 0 min 0 min 0 W/m 16,1 km/h (3 Bft) 97,87 %
03.02.2022 17:24 7,1 C 6,7 C 3,9 C 88 % 1013,9 hPa 0,0 l/m 0 min 0 min 0 W/m 16,1 km/h (3 Bft) 100,00 %
03.02.2022 17:26 7,1 C 6,7 C 3,9 C 88 % 1013,8 hPa 0,0 l/m 0 min 0 min 0 W/m 25,7 km/h (4 Bft) 97,87 %
03.02.2022 17:28 7,1 C 6,7 C 3,9 C 88 % 1013,8 hPa 0,0 l/m 0 min 0 min 0 W/m 16,1 km/h (3 Bft) 97,83 %
03.02.2022 17:30 7,1 C 6,7 C 3,9 C 88 % 1013,8 hPa 0,0 l/m 0 min 0 min 0 W/m 16,1 km/h (3 Bft) 100,00 %
03.02.2022 17:32 7,1 C 6,7 C 3,9 C 88 % 1013,8 hPa 0,0 l/m 0 min 0 min 0 W/m 12,9 km/h (3 Bft) 100,00 %
03.02.2022 17:34 7,1 C 6,7 C 3,9 C 89 % 1013,8 hPa 0,0 l/m 0 min 0 min 0 W/m 16,1 km/h (3 Bft) 100,00 %
03.02.2022 17:36 7,1 C 6,7 C 3,9 C 89 % 1013,8 hPa 0,0 l/m 0 min 0 min 0 W/m 12,9 km/h (3 Bft) 100,00 %
03.02.2022 17:38 7,1 C 6,1 C 3,9 C 89 % 1013,9 hPa 0,0 l/m 0 min 0 min 0 W/m 16,1 km/h (3 Bft) 100,00 %
03.02.2022 17:40 7,0 C 6,1 C 3,9 C 89 % 1013,8 hPa 0,0 l/m 0 min 0 min 0 W/m 12,9 km/h (3 Bft) 100,00 %
03.02.2022 17:42 7,0 C 6,1 C 3,3 C 89 % 1013,9 hPa 0,0 l/m 0 min 0 min 0 W/m 12,9 km/h (3 Bft) 100,00 %
03.02.2022 17:44 7,0 C 6,1 C 3,9 C 89 % 1014,0 hPa 0,0 l/m 0 min 0 min 0 W/m 16,1 km/h (3 Bft) 100,00 %
03.02.2022 17:46 7,0 C 6,1 C 3,9 C 89 % 1013,9 hPa 0,0 l/m 0 min 0 min 0 W/m 19,3 km/h (3 Bft) 100,00 %
03.02.2022 17:48 7,0 C 6,1 C 3,9 C 89 % 1013,9 hPa 0,0 l/m 0 min 0 min 0 W/m 25,7 km/h (4 Bft) 97,87 %
03.02.2022 17:50 7,0 C 6,7 C 3,9 C 89 % 1013,9 hPa 0,0 l/m 0 min 0 min 0 W/m 16,1 km/h (3 Bft) 97,83 %
03.02.2022 17:52 7,0 C 6,7 C 3,9 C 89 % 1013,9 hPa 0,0 l/m 0 min 0 min 0 W/m 19,3 km/h (3 Bft) 97,87 %
03.02.2022 17:54 7,0 C 6,7 C 3,9 C 89 % 1013,8 hPa 0,0 l/m 0 min 0 min 0 W/m 22,5 km/h (4 Bft) 95,74 %
03.02.2022 17:56 7,0 C 6,7 C 3,9 C 89 % 1013,8 hPa 0,0 l/m 0 min 0 min 0 W/m 29,0 km/h (5 Bft) 95,74 %
03.02.2022 17:58 7,0 C 6,7 C 3,9 C 89 % 1013,8 hPa 0,0 l/m 0 min 0 min 0 W/m 19,3 km/h (3 Bft) 93,62 %
03.02.2022 18:00 7,0 C 6,1 C 3,9 C 89 % 1013,9 hPa 0,0 l/m 0 min 0 min 0 W/m 12,9 km/h (3 Bft) 91,49 %
03.02.2022 18:02 7,0 C 6,1 C 3,9 C 89 % 1013,8 hPa 0,0 l/m 0 min 0 min 0 W/m 19,3 km/h (3 Bft) 95,65 %
03.02.2022 18:04 7,0 C 6,1 C 3,9 C 89 % 1013,9 hPa 0,0 l/m 0 min 0 min 0 W/m 22,5 km/h (4 Bft) 95,74 %
03.02.2022 18:08 7,0 C 6,1 C 3,3 C 89 % 1013,9 hPa 0,0 l/m 0 min 0 min 0 W/m 16,1 km/h (3 Bft) 96,39 %
03.02.2022 18:10 7,0 C 6,1 C 3,3 C 89 % 1013,9 hPa 0,0 l/m 0 min 0 min 0 W/m 16,1 km/h (3 Bft) 95,74 %
03.02.2022 18:12 6,9 C 6,1 C 3,3 C 89 % 1013,9 hPa 0,0 l/m 0 min 0 min 0 W/m 16,1 km/h (3 Bft) 93,62 %
03.02.2022 18:14 6,9 C 6,1 C 3,3 C 89 % 1013,9 hPa 0,0 l/m 0 min 0 min 0 W/m 19,3 km/h (3 Bft) 93,62 %
03.02.2022 18:16 6,9 C 6,1 C 3,3 C 89 % 1013,9 hPa 0,0 l/m 0 min 0 min 0 W/m 16,1 km/h (3 Bft) 96,55 %
03.02.2022 18:18 6,9 C 6,1 C 3,3 C 89 % 1013,9 hPa 0,0 l/m 0 min 0 min 0 W/m 16,1 km/h (3 Bft) 94,29 %
03.02.2022 18:20 6,9 C 6,1 C 3,3 C 89 % 1013,8 hPa 0,0 l/m 0 min 0 min 0 W/m 19,3 km/h (3 Bft) 95,74 %
03.02.2022 18:22 6,9 C 6,1 C 3,3 C 89 % 1013,9 hPa 0,0 l/m 0 min 0 min 0 W/m 19,3 km/h (3 Bft) 93,62 %
03.02.2022 18:24 6,9 C 6,1 C 3,3 C 89 % 1013,9 hPa 0,0 l/m 0 min 0 min 0 W/m 16,1 km/h (3 Bft) 95,74 %
03.02.2022 18:26 6,9 C 6,1 C 3,3 C 90 % 1013,9 hPa 0,0 l/m 0 min 0 min 0 W/m 19,3 km/h (3 Bft) 97,87 %
03.02.2022 18:28 6,9 C 6,1 C 3,3 C 90 % 1013,9 hPa 0,0 l/m 0 min 0 min 0 W/m 29,0 km/h (5 Bft) 97,83 %
03.02.2022 18:30 6,9 C 6,1 C 3,3 C 90 % 1014,0 hPa 0,0 l/m 0 min 0 min 0 W/m 19,3 km/h (3 Bft) 97,87 %
03.02.2022 18:32 6,9 C 6,1 C 3,3 C 90 % 1013,9 hPa 0,0 l/m 0 min 0 min 0 W/m 19,3 km/h (3 Bft) 97,92 %
03.02.2022 18:34 6,9 C 6,1 C 3,3 C 90 % 1013,9 hPa 0,0 l/m 0 min 0 min 0 W/m 16,1 km/h (3 Bft) 97,87 %
03.02.2022 18:36 6,9 C 6,1 C 3,3 C 90 % 1013,9 hPa 0,0 l/m 0 min 0 min 0 W/m 16,1 km/h (3 Bft) 97,96 %
03.02.2022 18:38 6,9 C 6,1 C 3,3 C 90 % 1013,9 hPa 0,0 l/m 0 min 0 min 0 W/m 25,7 km/h (4 Bft) 95,65 %
03.02.2022 18:40 6,9 C 6,1 C 3,3 C 90 % 1013,9 hPa 0,0 l/m 0 min 0 min 0 W/m 12,9 km/h (3 Bft) 95,74 %
03.02.2022 18:42 6,9 C 6,1 C 3,3 C 90 % 1013,8 hPa 0,0 l/m 0 min 0 min 0 W/m 16,1 km/h (3 Bft) 97,87 %
03.02.2022 18:44 6,9 C 6,1 C 3,3 C 90 % 1013,9 hPa 0,0 l/m 0 min 0 min 0 W/m 22,5 km/h (4 Bft) 97,87 %
03.02.2022 18:46 6,9 C 6,1 C 3,3 C 90 % 1013,8 hPa 0,0 l/m 0 min 0 min 0 W/m 12,9 km/h (3 Bft) 100,00 %
03.02.2022 18:48 6,9 C 6,1 C 3,3 C 90 % 1013,8 hPa 0,0 l/m 0 min 0 min 0 W/m 22,5 km/h (4 Bft) 97,87 %
03.02.2022 18:50 6,8 C 6,1 C 3,3 C 90 % 1013,8 hPa 0,0 l/m 0 min 0 min 0 W/m 16,1 km/h (3 Bft) 100,00 %
03.02.2022 18:52 6,8 C 6,1 C 3,3 C 90 % 1013,9 hPa 0,0 l/m 0 min 0 min 0 W/m 19,3 km/h (3 Bft) 95,74 %
03.02.2022 18:54 6,8 C 6,1 C 3,3 C 90 % 1013,8 hPa 0,0 l/m 0 min 0 min 0 W/m 19,3 km/h (3 Bft) 100,00 %
03.02.2022 18:56 6,8 C 6,1 C 3,3 C 90 % 1013,9 hPa 0,0 l/m 0 min 0 min 0 W/m 22,5 km/h (4 Bft) 97,87 %
03.02.2022 18:58 6,8 C 6,1 C 3,3 C 90 % 1013,8 hPa 0,0 l/m 0 min 0 min 0 W/m 29,0 km/h (5 Bft) 100,00 %
03.02.2022 19:00 6,8 C 6,1 C 3,3 C 90 % 1013,9 hPa 0,0 l/m 0 min 0 min 0 W/m 22,5 km/h (4 Bft) 100,00 %
03.02.2022 19:02 6,8 C 6,1 C 3,3 C 90 % 1013,8 hPa 0,0 l/m 0 min 0 min 0 W/m 16,1 km/h (3 Bft) 51,11 %
03.02.2022 19:04 6,9 C 6,1 C 3,3 C 90 % 1013,7 hPa 0,0 l/m 0 min 0 min 0 W/m 22,5 km/h (4 Bft) 100,00 %
03.02.2022 19:06 6,8 C 6,1 C 3,3 C 90 % 1013,7 hPa 0,0 l/m 0 min 0 min 0 W/m 16,1 km/h (3 Bft) 97,87 %
03.02.2022 19:08 6,8 C 6,1 C 3,3 C 90 % 1013,9 hPa 0,0 l/m 0 min 0 min 0 W/m 19,3 km/h (3 Bft) 100,00 %
03.02.2022 19:10 6,8 C 6,1 C 3,3 C 90 % 1013,9 hPa 0,0 l/m 0 min 0 min 0 W/m 19,3 km/h (3 Bft) 100,00 %
03.02.2022 19:12 6,8 C 6,1 C 3,3 C 90 % 1013,9 hPa 0,0 l/m 0 min 0 min 0 W/m 25,7 km/h (4 Bft) 97,87 %
03.02.2022 19:14 6,8 C 6,1 C 3,3 C 90 % 1013,8 hPa 0,0 l/m 0 min 0 min 0 W/m 22,5 km/h (4 Bft) 97,83 %
03.02.2022 19:16 6,8 C 6,1 C 3,3 C 90 % 1013,9 hPa 0,0 l/m 0 min 0 min 0 W/m 19,3 km/h (3 Bft) 95,74 %
03.02.2022 19:18 6,8 C 6,1 C 3,3 C 90 % 1014,0 hPa 0,0 l/m 0 min 0 min 0 W/m 29,0 km/h (5 Bft) 95,74 %
03.02.2022 19:20 6,8 C 6,1 C 3,3 C 90 % 1014,0 hPa 0,0 l/m 0 min 0 min 0 W/m 22,5 km/h (4 Bft) 97,87 %
03.02.2022 19:22 6,8 C 6,1 C 3,3 C 90 % 1014,0 hPa 0,0 l/m 0 min 0 min 0 W/m 19,3 km/h (3 Bft) 97,87 %
03.02.2022 19:24 6,8 C 6,1 C 3,3 C 90 % 1014,0 hPa 0,0 l/m 0 min 0 min 0 W/m 19,3 km/h (3 Bft) 95,74 %
03.02.2022 19:26 6,8 C 6,1 C 3,3 C 90 % 1014,0 hPa 0,0 l/m 0 min 0 min 0 W/m 25,7 km/h (4 Bft) 97,83 %
03.02.2022 19:28 6,8 C 6,1 C 3,3 C 90 % 1014,0 hPa 0,0 l/m 0 min 0 min 0 W/m 16,1 km/h (3 Bft) 97,87 %
03.02.2022 19:30 6,8 C 6,1 C 3,3 C 90 % 1014,0 hPa 0,0 l/m 0 min 0 min 0 W/m 16,1 km/h (3 Bft) 95,74 %
03.02.2022 19:32 6,8 C 6,1 C 3,3 C 90 % 1014,0 hPa 0,0 l/m 0 min 0 min 0 W/m 25,7 km/h (4 Bft) 97,87 %
03.02.2022 19:34 6,8 C 6,1 C 3,3 C 90 % 1013,9 hPa 0,0 l/m 0 min 0 min 0 W/m 16,1 km/h (3 Bft) 97,87 %
03.02.2022 19:36 6,8 C 6,1 C 3,3 C 90 % 1014,0 hPa 0,0 l/m 0 min 0 min 0 W/m 16,1 km/h (3 Bft) 97,87 %
03.02.2022 19:38 6,8 C 6,1 C 3,3 C 90 % 1013,9 hPa 0,0 l/m 0 min 0 min 0 W/m 19,3 km/h (3 Bft) 97,83 %
03.02.2022 19:40 6,8 C 6,1 C 3,3 C 90 % 1014,0 hPa 0,0 l/m 0 min 0 min 0 W/m 19,3 km/h (3 Bft) 97,87 %
03.02.2022 19:42 6,8 C 6,1 C 3,3 C 90 % 1013,9 hPa 0,0 l/m 0 min 0 min 0 W/m 19,3 km/h (3 Bft) 93,62 %
03.02.2022 19:44 6,8 C 6,1 C 3,3 C 91 % 1013,9 hPa 0,0 l/m 0 min 0 min 0 W/m 22,5 km/h (4 Bft) 97,87 %
03.02.2022 19:46 6,8 C 6,1 C 3,3 C 91 % 1014,0 hPa 0,0 l/m 0 min 0 min 0 W/m 16,1 km/h (3 Bft) 97,87 %
03.02.2022 19:48 6,8 C 6,1 C 3,3 C 91 % 1014,0 hPa 0,0 l/m 0 min 0 min 0 W/m 22,5 km/h (4 Bft) 93,62 %
03.02.2022 19:50 6,8 C 6,1 C 3,3 C 91 % 1013,9 hPa 0,0 l/m 0 min 0 min 0 W/m 19,3 km/h (3 Bft) 95,65 %
03.02.2022 19:52 6,7 C 6,1 C 3,3 C 91 % 1014,0 hPa 0,0 l/m 0 min 0 min 0 W/m 16,1 km/h (3 Bft) 95,74 %
03.02.2022 19:54 6,7 C 6,1 C 3,3 C 91 % 1014,0 hPa 0,0 l/m 0 min 0 min 0 W/m 19,3 km/h (3 Bft) 97,87 %
03.02.2022 19:56 6,7 C 6,1 C 3,3 C 91 % 1013,9 hPa 0,0 l/m 0 min 0 min 0 W/m 22,5 km/h (4 Bft) 97,87 %
03.02.2022 19:58 6,7 C 6,1 C 3,3 C 91 % 1013,8 hPa 0,0 l/m 0 min 0 min 0 W/m 19,3 km/h (3 Bft) 97,87 %
03.02.2022 20:00 6,7 C 6,1 C 3,3 C 91 % 1013,9 hPa 0,0 l/m 0 min 0 min 0 W/m 19,3 km/h (3 Bft) 97,87 %
03.02.2022 20:02 6,7 C 6,1 C 3,3 C 91 % 1013,9 hPa 0,0 l/m 0 min 0 min 0 W/m 19,3 km/h (3 Bft) 95,65 %
03.02.2022 20:04 6,7 C 6,1 C 3,3 C 92 % 1013,9 hPa 0,0 l/m 0 min 0 min 0 W/m 16,1 km/h (3 Bft) 97,87 %
03.02.2022 20:06 6,7 C 6,1 C 3,3 C 92 % 1013,8 hPa 0,0 l/m 0 min 0 min 0 W/m 19,3 km/h (3 Bft) 96,36 %
03.02.2022 20:08 6,7 C 6,1 C 3,3 C 92 % 1013,8 hPa 0,0 l/m 0 min 0 min 0 W/m 19,3 km/h (3 Bft) 97,87 %
03.02.2022 20:10 6,7 C 6,1 C 3,3 C 92 % 1013,8 hPa 0,0 l/m 0 min 0 min 0 W/m 16,1 km/h (3 Bft) 97,87 %
03.02.2022 20:12 6,7 C 6,1 C 3,3 C 92 % 1013,8 hPa 0,0 l/m 0 min 2 min 0 W/m 12,9 km/h (3 Bft) 95,65 %
03.02.2022 20:14 6,7 C 6,1 C 2,8 C 93 % 1013,8 hPa 0,0 l/m 0 min 0 min 0 W/m 22,5 km/h (4 Bft) 100,00 %
03.02.2022 20:16 6,6 C 5,6 C 2,8 C 92 % 1013,8 hPa 0,0 l/m 0 min 0 min 0 W/m 19,3 km/h (3 Bft) 93,62 %
03.02.2022 20:18 6,6 C 5,6 C 2,8 C 93 % 1013,8 hPa 0,0 l/m 0 min 0 min 0 W/m 16,1 km/h (3 Bft) 95,74 %
03.02.2022 20:20 6,6 C 5,6 C 2,8 C 93 % 1013,8 hPa 0,0 l/m 0 min 0 min 0 W/m 12,9 km/h (3 Bft) 100,00 %
03.02.2022 20:22 6,6 C 5,6 C 2,8 C 93 % 1013,7 hPa 0,0 l/m 0 min 0 min 0 W/m 12,9 km/h (3 Bft) 100,00 %
03.02.2022 20:24 6,5 C 5,6 C 2,8 C 93 % 1013,7 hPa 0,0 l/m 0 min 0 min 0 W/m 9,7 km/h (2 Bft) 97,87 %
03.02.2022 20:26 6,5 C 5,6 C 2,8 C 93 % 1013,7 hPa 0,0 l/m 0 min 0 min 0 W/m 19,3 km/h (3 Bft) 100,00 %
03.02.2022 20:28 6,5 C 5,6 C 2,8 C 93 % 1013,7 hPa 0,0 l/m 0 min 0 min 0 W/m 12,9 km/h (3 Bft) 100,00 %
03.02.2022 20:30 6,5 C 5,6 C 2,8 C 93 % 1013,7 hPa 0,0 l/m 0 min 0 min 0 W/m 9,7 km/h (2 Bft) 100,00 %
03.02.2022 20:32 6,5 C 5,6 C 2,8 C 93 % 1013,7 hPa 0,0 l/m 0 min 0 min 0 W/m 12,9 km/h (3 Bft) 100,00 %
03.02.2022 20:34 6,5 C 5,6 C 2,8 C 94 % 1013,6 hPa 0,0 l/m 0 min 0 min 0 W/m 12,9 km/h (3 Bft) 100,00 %
03.02.2022 20:36 6,5 C 5,6 C 3,3 C 94 % 1013,7 hPa 0,0 l/m 0 min 0 min 0 W/m 19,3 km/h (3 Bft) 100,00 %
03.02.2022 20:38 6,5 C 6,1 C 3,3 C 94 % 1013,6 hPa 0,0 l/m 0 min 0 min 0 W/m 16,1 km/h (3 Bft) 97,87 %
03.02.2022 20:40 6,5 C 6,1 C 3,3 C 94 % 1013,7 hPa 0,0 l/m 0 min 0 min 0 W/m 16,1 km/h (3 Bft) 97,87 %
03.02.2022 20:42 6,5 C 6,1 C 3,3 C 94 % 1013,7 hPa 0,0 l/m 0 min 0 min 0 W/m 12,9 km/h (3 Bft) 97,87 %
03.02.2022 20:44 6,5 C 6,1 C 3,3 C 94 % 1013,7 hPa 0,0 l/m 0 min 0 min 0 W/m 19,3 km/h (3 Bft) 97,87 %
03.02.2022 20:46 6,5 C 6,1 C 3,3 C 94 % 1013,7 hPa 0,0 l/m 0 min 0 min 0 W/m 19,3 km/h (3 Bft) 100,00 %
03.02.2022 20:48 6,5 C 6,1 C 3,3 C 94 % 1013,7 hPa 0,0 l/m 0 min 0 min 0 W/m 16,1 km/h (3 Bft) 100,00 %
03.02.2022 20:50 6,5 C 6,1 C 3,3 C 94 % 1013,7 hPa 0,0 l/m 0 min 0 min 0 W/m 19,3 km/h (3 Bft) 100,00 %
03.02.2022 20:52 6,5 C 6,1 C 3,3 C 94 % 1013,7 hPa 0,0 l/m 0 min 0 min 0 W/m 16,1 km/h (3 Bft) 100,00 %
03.02.2022 20:54 6,5 C 6,1 C 3,3 C 94 % 1013,7 hPa 0,0 l/m 0 min 0 min 0 W/m 19,3 km/h (3 Bft) 95,74 %
03.02.2022 20:56 6,5 C 5,6 C 3,3 C 94 % 1013,7 hPa 0,0 l/m 0 min 0 min 0 W/m 16,1 km/h (3 Bft) 97,87 %
03.02.2022 20:58 6,5 C 5,6 C 3,3 C 94 % 1013,7 hPa 0,0 l/m 0 min 0 min 0 W/m 16,1 km/h (3 Bft) 97,83 %
03.02.2022 21:00 6,5 C 5,6 C 3,3 C 94 % 1013,7 hPa 0,0 l/m 0 min 0 min 0 W/m 6,4 km/h (2 Bft) 97,87 %
03.02.2022 21:02 6,4 C 5,6 C 3,3 C 94 % 1013,7 hPa 0,0 l/m 0 min 0 min 0 W/m 16,1 km/h (3 Bft) 95,74 %
03.02.2022 21:04 6,4 C 5,6 C 3,3 C 95 % 1013,8 hPa 0,0 l/m 0 min 0 min 0 W/m 19,3 km/h (3 Bft) 97,87 %
03.02.2022 21:06 6,4 C 5,6 C 3,3 C 94 % 1013,8 hPa 0,0 l/m 0 min 0 min 0 W/m 16,1 km/h (3 Bft) 97,87 %
03.02.2022 21:08 6,4 C 5,6 C 3,3 C 94 % 1013,7 hPa 0,0 l/m 0 min 0 min 0 W/m 16,1 km/h (3 Bft) 97,87 %
03.02.2022 21:10 6,4 C 5,6 C 3,3 C 94 % 1013,7 hPa 0,0 l/m 0 min 0 min 0 W/m 16,1 km/h (3 Bft) 97,83 %
03.02.2022 21:12 6,4 C 5,6 C 3,3 C 95 % 1013,7 hPa 0,0 l/m 0 min 0 min 0 W/m 16,1 km/h (3 Bft) 95,74 %
03.02.2022 21:14 6,4 C 5,6 C 3,3 C 95 % 1013,8 hPa 0,0 l/m 0 min 0 min 0 W/m 12,9 km/h (3 Bft) 95,74 %
03.02.2022 21:16 6,4 C 5,6 C 3,3 C 95 % 1013,8 hPa 0,0 l/m 0 min 0 min 0 W/m 16,1 km/h (3 Bft) 97,87 %
03.02.2022 21:18 6,4 C 5,6 C 3,3 C 95 % 1013,8 hPa 0,0 l/m 0 min 0 min 0 W/m 16,1 km/h (3 Bft) 97,87 %
03.02.2022 21:20 6,4 C 5,6 C 3,3 C 95 % 1013,8 hPa 0,0 l/m 0 min 0 min 0 W/m 12,9 km/h (3 Bft) 97,87 %
03.02.2022 21:22 6,4 C 5,6 C 2,8 C 95 % 1013,9 hPa 0,0 l/m 0 min 0 min 0 W/m 16,1 km/h (3 Bft) 97,87 %
03.02.2022 21:24 6,4 C 5,6 C 2,8 C 95 % 1013,8 hPa 0,0 l/m 0 min 0 min 0 W/m 12,9 km/h (3 Bft) 93,48 %
03.02.2022 21:26 6,4 C 5,6 C 2,8 C 95 % 1013,8 hPa 0,0 l/m 0 min 0 min 0 W/m 16,1 km/h (3 Bft) 97,87 %
03.02.2022 21:28 6,4 C 5,6 C 2,8 C 95 % 1013,8 hPa 0,0 l/m 0 min 0 min 0 W/m 9,7 km/h (2 Bft) 93,62 %
03.02.2022 21:30 6,4 C 5,6 C 2,8 C 95 % 1013,8 hPa 0,0 l/m 0 min 0 min 0 W/m 12,9 km/h (3 Bft) 95,74 %
03.02.2022 21:32 6,4 C 5,6 C 2,8 C 95 % 1013,8 hPa 0,0 l/m 0 min 0 min 0 W/m 12,9 km/h (3 Bft) 97,87 %
03.02.2022 21:34 6,4 C 5,6 C 2,8 C 95 % 1013,8 hPa 0,0 l/m 0 min 0 min 0 W/m 9,7 km/h (2 Bft) 97,83 %
03.02.2022 21:36 6,4 C 5,6 C 2,8 C 95 % 1013,9 hPa 0,0 l/m 0 min 0 min 0 W/m 9,7 km/h (2 Bft) 95,74 %
03.02.2022 21:38 6,4 C 5,6 C 2,8 C 95 % 1013,8 hPa 0,0 l/m 0 min 0 min 0 W/m 12,9 km/h (3 Bft) 95,74 %
03.02.2022 21:40 6,4 C 5,6 C 2,8 C 95 % 1013,8 hPa 0,0 l/m 0 min 0 min 0 W/m 6,4 km/h (2 Bft) 97,87 %
03.02.2022 21:42 6,4 C 5,6 C 2,8 C 95 % 1013,7 hPa 0,0 l/m 0 min 0 min 0 W/m 12,9 km/h (3 Bft) 95,74 %
03.02.2022 21:44 6,4 C 5,6 C 2,8 C 96 % 1013,8 hPa 0,0 l/m 0 min 0 min 0 W/m 12,9 km/h (3 Bft) 97,83 %
03.02.2022 21:46 6,4 C 5,6 C 2,8 C 96 % 1013,8 hPa 0,0 l/m 0 min 0 min 0 W/m 19,3 km/h (3 Bft) 97,87 %
03.02.2022 21:48 6,3 C 5,6 C 2,8 C 96 % 1013,8 hPa 0,0 l/m 0 min 0 min 0 W/m 22,5 km/h (4 Bft) 95,74 %
03.02.2022 21:50 6,3 C 5,6 C 2,8 C 96 % 1013,8 hPa 0,0 l/m 0 min 0 min 0 W/m 16,1 km/h (3 Bft) 89,36 %
03.02.2022 21:52 6,3 C 5,6 C 2,8 C 96 % 1013,8 hPa 0,0 l/m 0 min 0 min 0 W/m 16,1 km/h (3 Bft) 95,74 %
03.02.2022 21:54 6,3 C 5,6 C 3,3 C 96 % 1013,7 hPa 0,0 l/m 0 min 0 min 0 W/m 16,1 km/h (3 Bft) 95,74 %
03.02.2022 21:56 6,4 C 5,6 C 3,3 C 96 % 1013,6 hPa 0,0 l/m 0 min 0 min 0 W/m 19,3 km/h (3 Bft) 95,74 %
03.02.2022 21:58 6,3 C 5,6 C 3,3 C 96 % 1013,7 hPa 0,0 l/m 0 min 0 min 0 W/m 16,1 km/h (3 Bft) 93,48 %
03.02.2022 22:00 6,3 C 5,6 C 3,3 C 96 % 1013,7 hPa 0,0 l/m 0 min 0 min 0 W/m 19,3 km/h (3 Bft) 93,62 %
03.02.2022 22:02 6,4 C 5,6 C 3,3 C 96 % 1013,6 hPa 0,0 l/m 0 min 0 min 0 W/m 16,1 km/h (3 Bft) 95,74 %
03.02.2022 22:04 6,4 C 5,6 C 3,3 C 96 % 1013,7 hPa 0,0 l/m 0 min 0 min 0 W/m 19,3 km/h (3 Bft) 91,49 %
03.02.2022 22:06 6,4 C 5,6 C 3,3 C 96 % 1013,7 hPa 0,0 l/m 0 min 0 min 0 W/m 12,9 km/h (3 Bft) 93,62 %
03.02.2022 22:08 6,4 C 5,6 C 3,3 C 96 % 1013,7 hPa 0,0 l/m 0 min 0 min 0 W/m 12,9 km/h (3 Bft) 95,65 %
03.02.2022 22:10 6,4 C 5,6 C 3,3 C 96 % 1013,7 hPa 0,0 l/m 0 min 0 min 0 W/m 19,3 km/h (3 Bft) 95,74 %
03.02.2022 22:12 6,4 C 5,6 C 3,3 C 96 % 1013,7 hPa 0,0 l/m 0 min 2 min 0 W/m 12,9 km/h (3 Bft) 95,74 %
03.02.2022 22:14 6,4 C 5,6 C 3,3 C 96 % 1013,6 hPa 0,0 l/m 0 min 0 min 0 W/m 6,4 km/h (2 Bft) 95,74 %
03.02.2022 22:16 6,4 C 5,6 C 3,3 C 96 % 1013,6 hPa 0,0 l/m 0 min 0 min 0 W/m 9,7 km/h (2 Bft) 95,74 %
03.02.2022 22:18 6,4 C 5,6 C 3,3 C 96 % 1013,6 hPa 0,0 l/m 0 min 0 min 0 W/m 9,7 km/h (2 Bft) 97,87 %
03.02.2022 22:20 6,4 C 5,6 C 3,3 C 96 % 1013,6 hPa 0,0 l/m 0 min 0 min 0 W/m 6,4 km/h (2 Bft) 97,83 %
03.02.2022 22:22 6,4 C 5,6 C 3,3 C 96 % 1013,6 hPa 0,0 l/m 0 min 0 min 0 W/m 12,9 km/h (3 Bft) 97,87 %
03.02.2022 22:24 6,4 C 5,6 C 3,3 C 96 % 1013,6 hPa 0,0 l/m 0 min 0 min 0 W/m 19,3 km/h (3 Bft) 97,87 %
03.02.2022 22:26 6,4 C 5,6 C 3,3 C 96 % 1013,6 hPa 0,0 l/m 0 min 0 min 0 W/m 12,9 km/h (3 Bft) 97,87 %
03.02.2022 22:28 6,4 C 5,6 C 3,3 C 96 % 1013,7 hPa 0,0 l/m 0 min 0 min 0 W/m 9,7 km/h (2 Bft) 97,87 %
03.02.2022 22:30 6,4 C 5,6 C 3,3 C 96 % 1013,7 hPa 0,0 l/m 0 min 0 min 0 W/m 12,9 km/h (3 Bft) 97,87 %
03.02.2022 22:32 6,4 C 5,6 C 3,3 C 96 % 1013,7 hPa 0,0 l/m 0 min 0 min 0 W/m 19,3 km/h (3 Bft) 97,83 %
03.02.2022 22:34 6,4 C 5,6 C 3,3 C 96 % 1013,7 hPa 0,0 l/m 0 min 0 min 0 W/m 16,1 km/h (3 Bft) 100,00 %
03.02.2022 22:36 6,4 C 5,6 C 3,3 C 96 % 1013,6 hPa 0,0 l/m 0 min 0 min 0 W/m 19,3 km/h (3 Bft) 100,00 %
03.02.2022 22:38 6,4 C 5,6 C 3,3 C 96 % 1013,6 hPa 0,0 l/m 0 min 0 min 0 W/m 16,1 km/h (3 Bft) 100,00 %
03.02.2022 22:40 6,4 C 5,6 C 3,3 C 96 % 1013,5 hPa 0,0 l/m 0 min 0 min 0 W/m 12,9 km/h (3 Bft) 100,00 %
03.02.2022 22:42 6,4 C 5,6 C 3,3 C 96 % 1013,5 hPa 0,0 l/m 0 min 0 min 0 W/m 16,1 km/h (3 Bft) 100,00 %
03.02.2022 22:44 6,4 C 5,6 C 3,3 C 96 % 1013,6 hPa 0,0 l/m 0 min 0 min 0 W/m 19,3 km/h (3 Bft) 100,00 %
03.02.2022 22:46 6,4 C 5,6 C 3,3 C 96 % 1013,6 hPa 0,0 l/m 0 min 0 min 0 W/m 19,3 km/h (3 Bft) 100,00 %
03.02.2022 22:48 6,4 C 5,6 C 3,3 C 96 % 1013,6 hPa 0,0 l/m 0 min 0 min 0 W/m 19,3 km/h (3 Bft) 100,00 %
03.02.2022 22:50 6,4 C 5,6 C 3,3 C 96 % 1013,6 hPa 0,0 l/m 0 min 0 min 0 W/m 16,1 km/h (3 Bft) 100,00 %
03.02.2022 22:52 6,4 C 6,1 C 3,3 C 96 % 1013,6 hPa 0,0 l/m 0 min 0 min 0 W/m 12,9 km/h (3 Bft) 100,00 %
03.02.2022 22:54 6,4 C 6,1 C 3,3 C 96 % 1013,7 hPa 0,0 l/m 0 min 0 min 0 W/m 19,3 km/h (3 Bft) 100,00 %
03.02.2022 22:56 6,4 C 6,1 C 3,3 C 96 % 1013,6 hPa 0,0 l/m 0 min 0 min 0 W/m 19,3 km/h (3 Bft) 100,00 %
03.02.2022 22:58 6,4 C 6,1 C 3,3 C 96 % 1013,6 hPa 0,0 l/m 0 min 0 min 0 W/m 19,3 km/h (3 Bft) 100,00 %
03.02.2022 23:00 6,4 C 6,1 C 3,3 C 96 % 1013,5 hPa 0,0 l/m 0 min 0 min 0 W/m 22,5 km/h (4 Bft) 100,00 %
03.02.2022 23:02 6,4 C 6,1 C 3,3 C 96 % 1013,5 hPa 0,0 l/m 0 min 0 min 0 W/m 16,1 km/h (3 Bft) 100,00 %
03.02.2022 23:04 6,4 C 6,1 C 3,3 C 96 % 1013,5 hPa 0,0 l/m 0 min 0 min 0 W/m 22,5 km/h (4 Bft) 100,00 %
03.02.2022 23:06 6,4 C 6,1 C 3,3 C 96 % 1013,6 hPa 0,0 l/m 0 min 0 min 0 W/m 19,3 km/h (3 Bft) 100,00 %
03.02.2022 23:08 6,4 C 6,1 C 3,3 C 96 % 1013,6 hPa 0,0 l/m 0 min 0 min 0 W/m 19,3 km/h (3 Bft) 100,00 %
03.02.2022 23:10 6,4 C 6,1 C 3,3 C 96 % 1013,6 hPa 0,0 l/m 0 min 0 min 0 W/m 16,1 km/h (3 Bft) 100,00 %
03.02.2022 23:12 6,4 C 6,1 C 3,3 C 96 % 1013,6 hPa 0,0 l/m 0 min 0 min 0 W/m 22,5 km/h (4 Bft) 100,00 %
03.02.2022 23:14 6,4 C 6,1 C 3,3 C 96 % 1013,5 hPa 0,0 l/m 0 min 0 min 0 W/m 19,3 km/h (3 Bft) 97,87 %
03.02.2022 23:16 6,4 C 6,1 C 3,3 C 96 % 1013,6 hPa 0,0 l/m 0 min 0 min 0 W/m 16,1 km/h (3 Bft) 100,00 %
03.02.2022 23:18 6,4 C 5,6 C 3,3 C 96 % 1013,6 hPa 0,0 l/m 0 min 0 min 0 W/m 16,1 km/h (3 Bft) 97,87 %
03.02.2022 23:20 6,4 C 5,6 C 3,3 C 96 % 1013,6 hPa 0,0 l/m 0 min 0 min 0 W/m 19,3 km/h (3 Bft) 100,00 %
03.02.2022 23:22 6,4 C 5,6 C 3,3 C 96 % 1013,5 hPa 0,0 l/m 0 min 0 min 0 W/m 16,1 km/h (3 Bft) 100,00 %
03.02.2022 23:24 6,4 C 5,6 C 3,3 C 96 % 1013,5 hPa 0,0 l/m 0 min 0 min 0 W/m 12,9 km/h (3 Bft) 100,00 %
03.02.2022 23:26 6,4 C 5,6 C 3,3 C 96 % 1013,4 hPa 0,0 l/m 0 min 0 min 0 W/m 12,9 km/h (3 Bft) 100,00 %
03.02.2022 23:28 6,4 C 5,6 C 3,3 C 96 % 1013,5 hPa 0,0 l/m 0 min 0 min 0 W/m 12,9 km/h (3 Bft) 97,87 %
03.02.2022 23:30 6,4 C 5,6 C 3,3 C 96 % 1013,5 hPa 0,0 l/m 0 min 0 min 0 W/m 22,5 km/h (4 Bft) 100,00 %
03.02.2022 23:32 6,4 C 6,1 C 3,3 C 96 % 1013,5 hPa 0,0 l/m 0 min 0 min 0 W/m 12,9 km/h (3 Bft) 100,00 %
03.02.2022 23:34 6,4 C 6,1 C 3,3 C 96 % 1013,5 hPa 0,0 l/m 0 min 0 min 0 W/m 16,1 km/h (3 Bft) 100,00 %
03.02.2022 23:36 6,4 C 6,1 C 3,3 C 96 % 1013,5 hPa 0,0 l/m 0 min 0 min 0 W/m 12,9 km/h (3 Bft) 97,87 %
03.02.2022 23:38 6,4 C 6,1 C 3,3 C 96 % 1013,5 hPa 0,0 l/m 0 min 0 min 0 W/m 16,1 km/h (3 Bft) 97,87 %
03.02.2022 23:40 6,5 C 6,1 C 3,3 C 96 % 1013,5 hPa 0,0 l/m 0 min 0 min 0 W/m 12,9 km/h (3 Bft) 97,87 %
03.02.2022 23:42 6,5 C 6,1 C 3,3 C 96 % 1013,6 hPa 0,0 l/m 0 min 0 min 0 W/m 6,4 km/h (2 Bft) 100,00 %
03.02.2022 23:44 6,5 C 6,1 C 3,3 C 96 % 1013,5 hPa 0,0 l/m 0 min 0 min 0 W/m 12,9 km/h (3 Bft) 97,87 %
03.02.2022 23:46 6,5 C 6,1 C 3,3 C 96 % 1013,5 hPa 0,0 l/m 0 min 0 min 0 W/m 12,9 km/h (3 Bft) 97,83 %
03.02.2022 23:48 6,5 C 6,1 C 3,3 C 96 % 1013,5 hPa 0,0 l/m 0 min 0 min 0 W/m 22,5 km/h (4 Bft) 97,87 %
03.02.2022 23:50 6,5 C 6,1 C 3,3 C 96 % 1013,6 hPa 0,0 l/m 0 min 0 min 0 W/m 19,3 km/h (3 Bft) 95,74 %
03.02.2022 23:52 6,5 C 6,1 C 3,3 C 96 % 1013,5 hPa 0,0 l/m 0 min 0 min 0 W/m 22,5 km/h (4 Bft) 97,87 %
03.02.2022 23:54 6,5 C 6,1 C 3,3 C 96 % 1013,5 hPa 0,0 l/m 0 min 0 min 0 W/m 16,1 km/h (3 Bft) 95,74 %
03.02.2022 23:56 6,5 C 6,1 C 3,3 C 96 % 1013,5 hPa 0,0 l/m 0 min 0 min 0 W/m 22,5 km/h (4 Bft) 95,74 %
03.02.2022 23:58 6,5 C 6,1 C 3,3 C 96 % 1013,4 hPa 0,0 l/m 0 min 0 min 0 W/m 12,9 km/h (3 Bft) 95,65 %
_ Min-Zeit 21:48 20:16 20:14 13:56 23:26 - - - - 00:24 05:02
Minimum _ 6,3 C 5,6 C 2,8 C 87 % 1013,4 hPa - - - - 0,0 km/h (0 Bft) 45,45 %
_ Max-Zeit 00:50 00:20 03:20 01:58 00:00 08:42 15:22 08:02 15:30 11:50 00:02
Maximum _ 8,3 C 7,8 C 5,6 C 99 % 1021,9 hPa 0,2 l/m 2 min 2 min 161 W/m 48,3 km/h
S-SW (6 Bft)
100,00 %
Durchschnitt _ 7,3 C 6,8 C 4,3 C 94 % 1016,9 hPa #0,2 l/m #16 min. #6 min. 32 W/m 14,5 km/h (3 Bft) 97,42 %
© 2022 W. Hausmann